UAE421 YPPH-OMDB

Flight info

Callsign UAE421
Flight time 10h 26m
Altitude 34000
Route OPEGA DCT UNDER DCT 27S107E 25S104E DCT POLUM DCT 16S095E/N0496F360 10S090E 07S087E 05S085E DCT APOVU DCT AKDOB DCT BIBGO/N0484F380 L894 KITAL P570 ITURA DCT VAXAS DCT MIVEK P574 IMPED
Aircraft A388/J-SADE2E3FGHIJ3J4J5M1RWXY/LB1D1

Departure

Time 2026-05-04 18:17
Airport Perth International Airport (YPPH)

Arrival

Time 2026-05-05 04:43
Airport Dubai International Airport (OMDB)
Time Latitude Longitude Altitude Speed Heading
2026-05-04 17:40 -31.94052 115.97220 73 ft 0 kts 171°
2026-05-04 18:03 -31.94043 115.97218 62 ft 4 kts 168°
2026-05-04 18:03 -31.94017 115.97210 63 ft 4 kts 156°
2026-05-04 18:03 -31.93993 115.97195 62 ft 4 kts 144°
2026-05-04 18:03 -31.93973 115.97174 62 ft 4 kts 130°
2026-05-04 18:04 -31.93958 115.97148 62 ft 4 kts 110°
2026-05-04 18:04 -31.93955 115.97138 62 ft 0 kts 104°
2026-05-04 18:07 -31.93956 115.97142 62 ft 2 kts 104°
2026-05-04 18:07 -31.93962 115.97173 62 ft 6 kts 94°
2026-05-04 18:07 -31.93956 115.97227 62 ft 8 kts 69°
2026-05-04 18:08 -31.93930 115.97293 63 ft 10 kts 63°
2026-05-04 18:08 -31.93884 115.97353 63 ft 9 kts 17°
2026-05-04 18:08 -31.93825 115.97340 65 ft 9 kts 331°
2026-05-04 18:08 -31.93766 115.97300 65 ft 10 kts 330°
2026-05-04 18:09 -31.93636 115.97208 62 ft 11 kts 330°
2026-05-04 18:09 -31.93517 115.97103 66 ft 9 kts 283°
2026-05-04 18:10 -31.93533 115.97029 66 ft 10 kts 233°
2026-05-04 18:10 -31.93601 115.96982 66 ft 13 kts 197°
2026-05-04 18:10 -31.93694 115.96954 67 ft 15 kts 193°
2026-05-04 18:10 -31.93800 115.96924 69 ft 17 kts 193°
2026-05-04 18:11 -31.93917 115.96892 66 ft 18 kts 193°
2026-05-04 18:11 -31.94038 115.96854 69 ft 18 kts 194°
2026-05-04 18:11 -31.94166 115.96817 67 ft 19 kts 194°
2026-05-04 18:11 -31.94300 115.96778 68 ft 20 kts 194°
2026-05-04 18:12 -31.94438 115.96738 68 ft 21 kts 194°
2026-05-04 18:12 -31.94581 115.96697 64 ft 22 kts 194°
2026-05-04 18:12 -31.94728 115.96655 65 ft 22 kts 194°
2026-05-04 18:12 -31.94876 115.96612 67 ft 22 kts 194°
2026-05-04 18:13 -31.95025 115.96568 68 ft 22 kts 194°
2026-05-04 18:13 -31.95177 115.96523 64 ft 22 kts 194°
2026-05-04 18:13 -31.95482 115.96432 62 ft 21 kts 194°
2026-05-04 18:14 -31.95627 115.96390 68 ft 22 kts 194°
2026-05-04 18:14 -31.95776 115.96346 64 ft 22 kts 193°
2026-05-04 18:14 -31.95866 115.96319 65 ft 7 kts 204°
2026-05-04 18:15 -31.95913 115.96203 66 ft 10 kts 278°
2026-05-04 18:15 -31.95873 115.96018 62 ft 13 kts 289°
2026-05-04 18:15 -31.95819 115.95986 67 ft 11 kts
2026-05-04 18:16 -31.95578 115.96058 68 ft 71 kts 14°
2026-05-04 18:16 -31.94876 115.96264 68 ft 133 kts 13°
2026-05-04 18:16 -31.93840 115.96558 155 ft 165 kts 14°
2026-05-04 18:17 -31.91621 115.97174 1141 ft 171 kts 15°
2026-05-04 18:17 -31.90453 115.97519 1579 ft 175 kts 18°
2026-05-04 18:17 -31.88028 115.98001 2291 ft 187 kts 357°
2026-05-04 18:18 -31.86789 115.97414 2546 ft 201 kts 328°
2026-05-04 18:18 -31.85908 115.96102 2859 ft 212 kts 296°
2026-05-04 18:18 -31.85623 115.94385 3196 ft 215 kts 276°
2026-05-04 18:18 -31.85546 115.92608 3403 ft 222 kts 274°
2026-05-04 18:19 -31.85257 115.88783 3717 ft 256 kts 279°
2026-05-04 18:19 -31.84995 115.86636 4073 ft 270 kts 280°
2026-05-04 18:19 -31.84711 115.84439 4768 ft 271 kts 279°
2026-05-04 18:20 -31.84426 115.82243 5443 ft 272 kts 278°
2026-05-04 18:20 -31.84142 115.80027 6069 ft 277 kts 278°
2026-05-04 18:20 -31.83855 115.77773 6706 ft 281 kts 278°
2026-05-04 18:20 -31.83565 115.75483 7258 ft 285 kts 278°
2026-05-04 18:21 -31.83270 115.73163 7857 ft 289 kts 278°
2026-05-04 18:21 -31.82970 115.70808 8460 ft 292 kts 278°
2026-05-04 18:21 -31.82674 115.68452 9112 ft 293 kts 276°
2026-05-04 18:21 -31.82721 115.66044 9701 ft 296 kts 258°
2026-05-04 18:22 -31.83332 115.63732 10241 ft 300 kts 246°
2026-05-04 18:22 -31.84154 115.61421 10583 ft 312 kts 246°
2026-05-04 18:22 -31.84996 115.58991 10739 ft 329 kts 246°
2026-05-04 18:22 -31.85869 115.56442 10906 ft 344 kts 246°
2026-05-04 18:23 -31.86566 115.53719 11291 ft 351 kts 260°
2026-05-04 18:23 -31.86579 115.50824 11791 ft 356 kts 278°
2026-05-04 18:23 -31.85995 115.48013 12193 ft 362 kts 285°
2026-05-04 18:23 -31.85310 115.45153 12736 ft 364 kts 285°
2026-05-04 18:24 -31.84634 115.42282 13342 ft 363 kts 285°
2026-05-04 18:24 -31.83963 115.39411 13897 ft 366 kts 284°
2026-05-04 18:24 -31.83285 115.36507 14304 ft 371 kts 284°
2026-05-04 18:24 -31.82600 115.33567 14727 ft 374 kts 284°
2026-05-04 18:25 -31.81908 115.30596 15141 ft 379 kts 285°
2026-05-04 18:25 -31.81211 115.27609 15690 ft 378 kts 284°
2026-05-04 18:25 -31.80661 115.24591 16152 ft 379 kts 281°
2026-05-04 18:25 -31.80158 115.21560 16776 ft 376 kts 281°
2026-05-04 18:26 -31.79650 115.18528 17169 ft 381 kts 281°
2026-05-04 18:26 -31.79132 115.15465 17635 ft 382 kts 281°
2026-05-04 18:26 -31.78613 115.12407 18135 ft 383 kts 281°
2026-05-04 18:26 -31.78091 115.09332 18590 ft 384 kts 281°
2026-05-04 18:27 -31.77564 115.06242 18987 ft 386 kts 281°
2026-05-04 18:27 -31.77036 115.03145 19383 ft 387 kts 281°
2026-05-04 18:27 -31.76507 115.00043 19788 ft 388 kts 281°
2026-05-04 18:27 -31.75975 114.96934 20157 ft 389 kts 281°
2026-05-04 18:28 -31.75440 114.93807 20529 ft 391 kts 281°
2026-05-04 18:28 -31.74902 114.90674 20980 ft 390 kts 281°
2026-05-04 18:28 -31.74364 114.87547 21338 ft 392 kts 281°
2026-05-04 18:28 -31.73822 114.84400 21682 ft 394 kts 281°
2026-05-04 18:29 -31.73276 114.81234 22083 ft 395 kts 281°
2026-05-04 18:29 -31.72727 114.78049 22330 ft 399 kts 281°
2026-05-04 18:29 -31.72182 114.74896 22827 ft 397 kts 281°
2026-05-04 18:29 -31.71632 114.71716 23116 ft 401 kts 281°
2026-05-04 18:30 -31.70512 114.65259 23643 ft 408 kts 281°
2026-05-04 18:30 -31.69941 114.61980 23977 ft 409 kts 281°
2026-05-04 18:30 -31.69374 114.58724 24421 ft 406 kts 281°
2026-05-04 18:31 -31.68805 114.55464 24664 ft 410 kts 281°
2026-05-04 18:31 -31.68228 114.52168 24916 ft 412 kts 281°
2026-05-04 18:31 -31.67651 114.48869 25303 ft 411 kts 281°
2026-05-04 18:31 -31.67076 114.45596 25675 ft 410 kts 281°
2026-05-04 18:32 -31.66497 114.42298 25957 ft 413 kts 281°
2026-05-04 18:32 -31.65915 114.38982 26167 ft 417 kts 281°
2026-05-04 18:32 -31.65324 114.35624 26417 ft 421 kts 281°
2026-05-04 18:32 -31.64733 114.32280 26960 ft 417 kts 281°
2026-05-04 18:33 -31.64144 114.28943 27162 ft 422 kts 281°
2026-05-04 18:33 -31.63749 114.26712 27315 ft 425 kts 281°
2026-05-04 18:33 -31.63147 114.23321 27816 ft 422 kts 281°
2026-05-04 18:33 -31.62545 114.19928 28093 ft 427 kts 281°
2026-05-04 18:34 -31.61939 114.16522 28570 ft 425 kts 281°
2026-05-04 18:34 -31.61133 114.11997 28872 ft 432 kts 281°
2026-05-04 18:34 -31.60520 114.08562 29356 ft 430 kts 281°
2026-05-04 18:34 -31.60103 114.06229 29523 ft 434 kts 281°
2026-05-04 18:35 -31.59483 114.02767 30011 ft 433 kts 281°
2026-05-04 18:35 -31.58861 113.99292 30183 ft 439 kts 281°
2026-05-04 18:35 -31.58229 113.95771 30398 ft 443 kts 281°
2026-05-04 18:35 -31.57601 113.92283 30846 ft 441 kts 281°
2026-05-04 18:36 -31.56966 113.88757 31111 ft 445 kts 281°
2026-05-04 18:36 -31.56324 113.85194 31324 ft 448 kts 281°
2026-05-04 18:36 -31.55676 113.81616 31756 ft 447 kts 281°
2026-05-04 18:36 -31.55030 113.78048 32098 ft 448 kts 281°
2026-05-04 18:37 -31.54380 113.74466 32344 ft 451 kts 281°
2026-05-04 18:37 -31.53727 113.70866 32639 ft 452 kts 281°
2026-05-04 18:37 -31.53068 113.67248 32963 ft 453 kts 281°
2026-05-04 18:37 -31.52409 113.63632 33283 ft 454 kts 281°
2026-05-04 18:38 -31.51747 113.60005 33588 ft 456 kts 281°
2026-05-04 18:38 -31.51083 113.56373 33900 ft 457 kts 280°
2026-05-04 18:38 -31.50415 113.52727 34207 ft 458 kts 280°
2026-05-04 18:39 -31.49056 113.45325 34295 ft 473 kts 280°
2026-05-04 18:39 -31.46950 113.38113 34291 ft 472 kts 294°
2026-05-04 18:40 -31.43289 113.31620 34288 ft 478 kts 307°
2026-05-04 18:40 -31.39068 113.25675 34290 ft 478 kts 307°
2026-05-04 18:41 -31.34844 113.19662 34296 ft 478 kts 307°
2026-05-04 18:41 -31.30619 113.13663 34293 ft 478 kts 307°
2026-05-04 18:42 -31.26396 113.07686 34291 ft 478 kts 307°
2026-05-04 18:42 -31.22163 113.01707 34291 ft 477 kts 307°
2026-05-04 18:43 -31.17922 112.95728 34291 ft 477 kts 307°
2026-05-04 18:43 -31.13689 112.89766 34287 ft 477 kts 307°
2026-05-04 18:44 -31.09450 112.83806 34288 ft 477 kts 307°
2026-05-04 18:44 -31.05218 112.77864 34279 ft 477 kts 307°
2026-05-04 18:45 -31.00979 112.71922 34284 ft 476 kts 307°
2026-05-04 18:45 -30.96738 112.65987 34280 ft 476 kts 308°
2026-05-04 18:46 -30.92525 112.60099 34282 ft 476 kts 308°
2026-05-04 18:46 -30.88283 112.54180 34276 ft 476 kts 308°
2026-05-04 18:47 -30.84036 112.48264 34273 ft 476 kts 308°
2026-05-04 18:47 -30.79790 112.42356 34273 ft 476 kts 308°
2026-05-04 18:48 -30.75531 112.36440 34275 ft 476 kts 308°
2026-05-04 18:48 -30.71279 112.30544 34275 ft 477 kts 308°
2026-05-04 18:49 -30.67020 112.24646 34276 ft 477 kts 308°
2026-05-04 18:49 -30.62772 112.18772 34266 ft 477 kts 308°
2026-05-04 18:50 -30.58495 112.12867 34271 ft 478 kts 308°
2026-05-04 18:50 -30.54211 112.06961 34264 ft 479 kts 308°
2026-05-04 18:51 -30.49919 112.01053 34270 ft 479 kts 308°
2026-05-04 18:51 -30.45610 111.95130 34270 ft 479 kts 308°
2026-05-04 18:52 -30.41310 111.89230 34274 ft 479 kts 308°
2026-05-04 18:52 -30.37027 111.83360 34262 ft 480 kts 308°
2026-05-04 18:53 -30.32718 111.77464 34268 ft 479 kts 308°
2026-05-04 18:53 -30.28416 111.71586 34259 ft 480 kts 308°
2026-05-04 18:54 -30.24098 111.65695 34448 ft 481 kts 308°
2026-05-04 18:54 -30.21927 111.62737 34820 ft 480 kts 308°
2026-05-04 18:54 -30.19784 111.59819 35245 ft 477 kts 308°
2026-05-04 18:54 -30.17653 111.56920 35654 ft 475 kts 308°
2026-05-04 18:55 -30.15527 111.54031 36102 ft 472 kts 308°
2026-05-04 18:55 -30.11250 111.48220 36254 ft 472 kts 308°
2026-05-04 18:55 -30.09125 111.45339 36254 ft 470 kts 308°
2026-05-04 18:56 -30.04865 111.39564 36250 ft 474 kts 308°
2026-05-04 18:56 -30.00635 111.33840 36245 ft 471 kts 308°
2026-05-04 18:57 -29.96382 111.28093 36250 ft 470 kts 308°
2026-05-04 18:57 -29.92119 111.22340 36270 ft 471 kts 308°
2026-05-04 18:58 -29.87849 111.16587 36233 ft 472 kts 309°
2026-05-04 18:58 -29.83577 111.10839 36251 ft 472 kts 308°
2026-05-04 18:59 -29.79311 111.05107 36228 ft 473 kts 309°
2026-05-04 18:59 -29.75063 110.99408 36263 ft 472 kts 309°
2026-05-04 19:00 -29.70786 110.93679 36243 ft 472 kts 309°
2026-05-04 19:00 -29.66506 110.87953 36258 ft 471 kts 308°
2026-05-04 19:01 -29.62235 110.82247 36225 ft 472 kts 309°
2026-05-04 19:01 -29.57957 110.76540 36237 ft 472 kts 309°
2026-05-04 19:02 -29.53661 110.70816 36206 ft 473 kts 308°
2026-05-04 19:02 -29.49364 110.65102 36227 ft 473 kts 309°
2026-05-04 19:03 -29.45057 110.59378 36223 ft 474 kts 308°
2026-05-04 19:03 -29.40775 110.53699 36235 ft 475 kts 309°
2026-05-04 19:04 -29.36452 110.47972 36233 ft 475 kts 308°
2026-05-04 19:04 -29.32113 110.42234 36239 ft 475 kts 309°
2026-05-04 19:05 -29.27775 110.36504 36235 ft 476 kts 309°
2026-05-04 19:05 -29.23435 110.30779 36236 ft 475 kts 309°
2026-05-04 19:06 -29.19094 110.25062 36240 ft 475 kts 309°
2026-05-04 19:06 -29.14780 110.19387 36223 ft 475 kts 309°
2026-05-04 19:07 -29.10446 110.13694 36229 ft 475 kts 309°
2026-05-04 19:07 -29.06106 110.08000 36207 ft 475 kts 309°
2026-05-04 19:08 -29.01761 110.02303 36225 ft 475 kts 309°
2026-05-04 19:08 -28.97649 109.96439 36200 ft 474 kts 304°
2026-05-04 19:09 -28.93760 109.90356 36194 ft 474 kts 304°
2026-05-04 19:09 -28.89895 109.84340 36229 ft 474 kts 304°
2026-05-04 19:10 -28.85984 109.78282 36225 ft 474 kts 304°
2026-05-04 19:10 -28.82073 109.72239 36223 ft 474 kts 304°
2026-05-04 19:11 -28.78158 109.66200 36214 ft 473 kts 304°
2026-05-04 19:11 -28.74244 109.60170 36204 ft 473 kts 304°
2026-05-04 19:12 -28.68372 109.51140 36210 ft 473 kts 304°
2026-05-04 19:13 -28.64459 109.45134 36203 ft 472 kts 304°
2026-05-04 19:13 -28.60540 109.39128 36207 ft 472 kts 304°
2026-05-04 19:14 -28.56646 109.33166 36204 ft 472 kts 304°
2026-05-04 19:14 -28.52725 109.27173 36201 ft 472 kts 304°
2026-05-04 19:15 -28.48823 109.21217 36206 ft 472 kts 304°
2026-05-04 19:15 -28.44887 109.15219 36193 ft 472 kts 304°
2026-05-04 19:16 -28.41028 109.09346 36198 ft 472 kts 304°
2026-05-04 19:16 -28.37139 109.03435 36197 ft 472 kts 304°
2026-05-04 19:17 -28.33208 108.97467 36192 ft 472 kts 304°
2026-05-04 19:17 -28.29275 108.91506 36193 ft 472 kts 304°
2026-05-04 19:18 -28.25342 108.85553 36187 ft 472 kts 304°
2026-05-04 19:18 -28.21402 108.79598 36191 ft 472 kts 304°
2026-05-04 19:19 -28.17471 108.73666 36218 ft 471 kts 304°
2026-05-04 19:19 -28.13542 108.67743 36192 ft 470 kts 304°
2026-05-04 19:20 -28.09619 108.61837 36184 ft 470 kts 304°
2026-05-04 19:20 -28.05691 108.55934 36184 ft 469 kts 304°
2026-05-04 19:21 -28.01787 108.50073 36178 ft 469 kts 304°
2026-05-04 19:21 -27.97854 108.44177 36163 ft 469 kts 304°
2026-05-04 19:22 -27.93930 108.38305 36196 ft 467 kts 304°
2026-05-04 19:22 -27.90013 108.32449 36176 ft 466 kts 304°
2026-05-04 19:23 -27.86107 108.26617 36162 ft 465 kts 304°
2026-05-04 19:23 -27.82200 108.20792 36165 ft 465 kts 304°
2026-05-04 19:24 -27.78292 108.14972 36164 ft 465 kts 304°
2026-05-04 19:24 -27.74414 108.09206 36160 ft 465 kts 304°
2026-05-04 19:25 -27.70515 108.03419 36199 ft 462 kts 303°
2026-05-04 19:25 -27.67261 107.98593 36185 ft 460 kts 303°
2026-05-04 19:26 -27.63389 107.92856 36169 ft 459 kts 303°
2026-05-04 19:26 -27.59551 107.87178 36172 ft 457 kts 303°
2026-05-04 19:27 -27.55704 107.81493 36149 ft 457 kts 303°
2026-05-04 19:27 -27.51845 107.75799 36148 ft 457 kts 303°
2026-05-04 19:28 -27.47999 107.70132 36173 ft 456 kts 303°
2026-05-04 19:28 -27.44149 107.64466 36169 ft 455 kts 303°
2026-05-04 19:29 -27.40301 107.58810 36162 ft 455 kts 303°
2026-05-04 19:29 -27.36454 107.53163 36159 ft 454 kts 303°
2026-05-04 19:30 -27.32610 107.47526 36154 ft 454 kts 303°
2026-05-04 19:30 -27.28784 107.41924 36157 ft 454 kts 303°
2026-05-04 19:31 -27.24942 107.36307 36186 ft 452 kts 303°
2026-05-04 19:31 -27.21104 107.30703 36174 ft 451 kts 303°
2026-05-04 19:32 -27.17280 107.25124 36162 ft 450 kts 303°
2026-05-04 19:32 -27.13467 107.19569 36155 ft 449 kts 303°
2026-05-04 19:33 -27.09655 107.14023 36143 ft 448 kts 303°
2026-05-04 19:33 -27.05872 107.08525 36139 ft 448 kts 303°
2026-05-04 19:34 -27.02042 107.02961 36126 ft 448 kts 303°
2026-05-04 19:34 -26.98282 106.97451 36160 ft 446 kts 301°
2026-05-04 19:35 -26.94671 106.91818 36154 ft 445 kts 301°
2026-05-04 19:35 -26.91063 106.86186 36150 ft 444 kts 301°
2026-05-04 19:36 -26.87437 106.80571 36148 ft 444 kts 301°
2026-05-04 19:36 -26.83807 106.74968 36149 ft 444 kts 301°
2026-05-04 19:37 -26.80168 106.69362 36139 ft 445 kts 301°
2026-05-04 19:37 -26.76531 106.63765 36134 ft 445 kts 301°
2026-05-04 19:38 -26.72877 106.58149 36140 ft 446 kts 301°
2026-05-04 19:38 -26.69224 106.52542 36144 ft 447 kts 301°
2026-05-04 19:39 -26.65558 106.46921 36154 ft 447 kts 301°
2026-05-04 19:39 -26.61881 106.41291 36150 ft 448 kts 301°
2026-05-04 19:40 -26.58229 106.35706 36153 ft 448 kts 301°
2026-05-04 19:40 -26.54548 106.30084 36150 ft 448 kts 301°
2026-05-04 19:41 -26.50867 106.24473 36193 ft 445 kts 300°
2026-05-04 19:41 -26.47238 106.18945 36173 ft 443 kts 300°
2026-05-04 19:42 -26.43607 106.13416 36154 ft 441 kts 300°
2026-05-04 19:42 -26.39988 106.07915 36125 ft 439 kts 300°
2026-05-04 19:43 -26.36387 106.02447 36123 ft 437 kts 300°
2026-05-04 19:43 -26.32786 105.96988 36109 ft 436 kts 300°
2026-05-04 19:44 -26.29190 105.91540 36106 ft 436 kts 300°
2026-05-04 19:44 -26.25590 105.86097 36143 ft 435 kts 300°
2026-05-04 19:45 -26.22010 105.80687 36133 ft 434 kts 300°
2026-05-04 19:45 -26.18453 105.75318 36131 ft 433 kts 300°
2026-05-04 19:46 -26.14875 105.69923 36131 ft 433 kts 300°
2026-05-04 19:46 -26.11294 105.64532 36122 ft 433 kts 300°
2026-05-04 19:47 -26.07711 105.59143 36115 ft 433 kts 300°
2026-05-04 19:47 -26.04121 105.53751 36116 ft 434 kts 300°
2026-05-04 19:48 -26.00526 105.48359 36157 ft 432 kts 300°
2026-05-04 19:48 -25.96945 105.42994 36144 ft 431 kts 299°
2026-05-04 19:49 -25.93372 105.37645 36134 ft 431 kts 299°
2026-05-04 19:49 -25.89825 105.32340 36133 ft 430 kts 300°
2026-05-04 19:50 -25.86256 105.27011 36118 ft 430 kts 300°
2026-05-04 19:50 -25.82696 105.21700 36119 ft 430 kts 300°
2026-05-04 19:51 -25.79126 105.16380 36119 ft 430 kts 300°
2026-05-04 19:51 -25.75546 105.11052 36123 ft 429 kts 299°
2026-05-04 19:52 -25.71973 105.05742 36133 ft 429 kts 299°
2026-05-04 19:52 -25.68400 105.00435 36127 ft 429 kts 299°
2026-05-04 19:53 -25.64852 104.95172 36129 ft 429 kts 299°
2026-05-04 19:53 -25.61278 104.89877 36123 ft 429 kts 299°
2026-05-04 19:54 -25.57702 104.84585 36120 ft 429 kts 299°
2026-05-04 19:54 -25.54117 104.79285 36123 ft 429 kts 300°
2026-05-04 19:55 -25.50533 104.73994 36082 ft 430 kts 300°
2026-05-04 19:55 -25.46952 104.68714 36125 ft 428 kts 299°
2026-05-04 19:56 -25.43372 104.63439 36125 ft 428 kts 299°
2026-05-04 19:56 -25.39793 104.58172 36103 ft 428 kts 299°
2026-05-04 19:57 -25.36233 104.52939 36119 ft 428 kts 299°
2026-05-04 19:57 -25.32656 104.47688 36129 ft 427 kts 299°
2026-05-04 19:58 -25.29081 104.42444 36124 ft 427 kts 299°
2026-05-04 19:58 -25.25494 104.37189 36122 ft 427 kts 299°
2026-05-04 19:59 -25.21906 104.31940 36121 ft 426 kts 299°
2026-05-04 19:59 -25.18367 104.26767 36110 ft 426 kts 299°
2026-05-04 20:00 -25.14796 104.21552 36113 ft 425 kts 299°
2026-05-04 20:00 -25.11224 104.16340 36105 ft 425 kts 299°
2026-05-04 20:01 -25.07646 104.11128 36110 ft 426 kts 299°
2026-05-04 20:01 -25.04090 104.05949 36109 ft 426 kts 299°
2026-05-04 20:02 -25.00489 104.00757 36110 ft 428 kts 301°
2026-05-04 20:02 -24.96427 103.95879 36095 ft 433 kts 305°
2026-05-04 20:03 -24.92255 103.91097 36107 ft 433 kts 305°
2026-05-04 20:03 -24.88095 103.86300 36116 ft 433 kts 305°
2026-05-04 20:04 -24.83932 103.81505 36097 ft 434 kts 305°
2026-05-04 20:04 -24.79755 103.76702 36108 ft 434 kts 305°
2026-05-04 20:05 -24.75596 103.71924 36124 ft 434 kts 305°
2026-05-04 20:05 -24.71412 103.67123 36128 ft 434 kts 305°
2026-05-04 20:06 -24.67225 103.62326 36109 ft 434 kts 305°
2026-05-04 20:06 -24.63041 103.57538 36103 ft 435 kts 305°
2026-05-04 20:07 -24.58845 103.52741 36108 ft 435 kts 305°
2026-05-04 20:07 -24.54644 103.47944 36103 ft 435 kts 305°
2026-05-04 20:08 -24.50440 103.43147 36103 ft 436 kts 305°
2026-05-04 20:08 -24.46260 103.38384 36107 ft 436 kts 305°
2026-05-04 20:09 -24.42050 103.33590 36106 ft 436 kts 305°
2026-05-04 20:09 -24.37832 103.28791 36086 ft 437 kts 306°
2026-05-04 20:10 -24.33604 103.23988 36092 ft 438 kts 306°
2026-05-04 20:10 -24.29377 103.19191 36105 ft 439 kts 306°
2026-05-04 20:11 -24.25137 103.14383 36111 ft 440 kts 306°
2026-05-04 20:11 -24.20875 103.09556 36114 ft 440 kts 306°
2026-05-04 20:12 -24.16642 103.04767 36117 ft 440 kts 306°
2026-05-04 20:12 -24.12378 102.99947 36116 ft 440 kts 306°
2026-05-04 20:13 -24.08123 102.95143 36113 ft 440 kts 306°
2026-05-04 20:13 -24.04581 102.91147 36112 ft 440 kts 306°
2026-05-04 20:14 -24.00322 102.86346 36105 ft 439 kts 306°
2026-05-04 20:14 -23.96064 102.81552 36099 ft 439 kts 306°
2026-05-04 20:15 -23.91818 102.76776 36099 ft 439 kts 306°
2026-05-04 20:15 -23.87559 102.71990 36097 ft 439 kts 306°
2026-05-04 20:16 -23.83303 102.67211 36076 ft 439 kts 306°
2026-05-04 20:16 -23.79038 102.62427 36081 ft 440 kts 306°
2026-05-04 20:17 -23.74781 102.57658 36094 ft 441 kts 306°
2026-05-04 20:17 -23.70488 102.52853 36101 ft 443 kts 306°
2026-05-04 20:18 -23.66190 102.48048 36109 ft 443 kts 306°
2026-05-04 20:18 -23.61875 102.43229 36112 ft 444 kts 306°
2026-05-04 20:19 -23.57558 102.38413 36107 ft 444 kts 306°
2026-05-04 20:19 -23.53240 102.33599 36092 ft 444 kts 306°
2026-05-04 20:20 -23.48916 102.28783 36096 ft 444 kts 306°
2026-05-04 20:20 -23.44616 102.24000 36096 ft 445 kts 306°
2026-05-04 20:21 -23.40291 102.19192 36099 ft 445 kts 306°
2026-05-04 20:21 -23.33789 102.11975 36096 ft 445 kts 306°
2026-05-04 20:22 -23.29445 102.07160 36098 ft 445 kts 306°
2026-05-04 20:22 -23.25141 102.02392 36082 ft 445 kts 307°
2026-05-04 20:23 -23.20802 101.97591 36085 ft 445 kts 307°
2026-05-04 20:23 -23.16454 101.92785 36088 ft 446 kts 307°
2026-05-04 20:24 -23.12099 101.87976 36089 ft 446 kts 307°
2026-05-04 20:24 -23.07746 101.83173 36091 ft 446 kts 307°
2026-05-04 20:25 -23.03377 101.78358 36096 ft 447 kts 307°
2026-05-04 20:25 -22.99018 101.73559 36085 ft 447 kts 307°
2026-05-04 20:26 -22.94681 101.68788 36083 ft 447 kts 307°
2026-05-04 20:26 -22.90305 101.63979 36080 ft 447 kts 307°
2026-05-04 20:27 -22.85937 101.59184 36091 ft 448 kts 307°
2026-05-04 20:27 -22.81553 101.54376 36094 ft 448 kts 307°
2026-05-04 20:28 -22.77171 101.49574 36094 ft 448 kts 307°
2026-05-04 20:28 -22.72785 101.44773 36097 ft 448 kts 307°
2026-05-04 20:29 -22.68400 101.39978 36067 ft 448 kts 307°
2026-05-04 20:29 -22.64012 101.35184 36084 ft 448 kts 307°
2026-05-04 20:30 -22.59643 101.30415 36090 ft 449 kts 307°
2026-05-04 20:30 -22.55243 101.25618 36090 ft 449 kts 307°
2026-05-04 20:31 -22.50838 101.20819 36087 ft 449 kts 307°
2026-05-04 20:31 -22.46434 101.16026 36083 ft 449 kts 307°
2026-05-04 20:32 -22.42032 101.11240 36086 ft 449 kts 307°
2026-05-04 20:32 -22.37635 101.06463 36082 ft 449 kts 307°
2026-05-04 20:33 -22.33222 101.01674 36083 ft 449 kts 307°
2026-05-04 20:33 -22.28805 100.96886 36080 ft 450 kts 307°
2026-05-04 20:34 -22.24414 100.92129 36084 ft 450 kts 308°
2026-05-04 20:34 -22.19986 100.87337 36079 ft 451 kts 308°
2026-05-04 20:35 -22.15556 100.82548 36083 ft 451 kts 308°
2026-05-04 20:35 -22.11118 100.77755 36085 ft 451 kts 308°
2026-05-04 20:36 -22.06679 100.72964 36074 ft 451 kts 308°
2026-05-04 20:36 -22.02247 100.68187 36073 ft 451 kts 308°
2026-05-04 20:37 -21.97831 100.63430 36078 ft 451 kts 308°
2026-05-04 20:37 -21.93381 100.58642 36083 ft 452 kts 308°
2026-05-04 20:38 -21.88926 100.53853 36088 ft 452 kts 308°
2026-05-04 20:38 -21.84485 100.49084 36084 ft 452 kts 308°
2026-05-04 20:39 -21.80055 100.44330 36081 ft 451 kts 308°
2026-05-04 20:39 -21.75607 100.39562 36076 ft 451 kts 308°
2026-05-04 20:40 -21.71157 100.34796 36072 ft 451 kts 308°
2026-05-04 20:40 -21.66709 100.30035 36072 ft 451 kts 308°
2026-05-04 20:41 -21.62259 100.25279 36074 ft 451 kts 308°
2026-05-04 20:41 -21.57805 100.20522 36071 ft 451 kts 308°
2026-05-04 20:42 -21.53375 100.15793 36073 ft 451 kts 309°
2026-05-04 20:42 -21.48921 100.11045 36066 ft 451 kts 309°
2026-05-04 20:43 -21.44480 100.06315 36070 ft 450 kts 309°
2026-05-04 20:43 -21.40022 100.01571 36070 ft 450 kts 309°
2026-05-04 20:44 -21.35581 99.96849 36072 ft 450 kts 309°
2026-05-04 20:44 -21.31153 99.92146 36072 ft 450 kts 309°
2026-05-04 20:45 -21.26698 99.87417 36072 ft 450 kts 309°
2026-05-04 20:45 -21.22240 99.82689 36065 ft 450 kts 309°
2026-05-04 20:46 -21.17782 99.77967 36072 ft 450 kts 309°
2026-05-04 20:46 -21.13329 99.73254 36070 ft 450 kts 309°
2026-05-04 20:47 -21.08891 99.68561 36062 ft 450 kts 309°
2026-05-04 20:47 -21.04436 99.63853 36064 ft 450 kts 309°
2026-05-04 20:48 -21.00002 99.59173 36064 ft 450 kts 309°
2026-05-04 20:48 -20.95548 99.54475 36064 ft 450 kts 309°
2026-05-04 20:49 -20.91091 99.49779 36063 ft 450 kts 309°
2026-05-04 20:49 -20.86630 99.45082 36049 ft 450 kts 309°
2026-05-04 20:50 -20.82167 99.40387 36061 ft 449 kts 309°
2026-05-04 20:50 -20.77711 99.35704 36061 ft 450 kts 309°
2026-05-04 20:51 -20.73245 99.31014 36061 ft 450 kts 309°
2026-05-04 20:51 -20.68809 99.26360 36061 ft 450 kts 309°
2026-05-04 20:52 -20.64337 99.21672 36063 ft 450 kts 309°
2026-05-04 20:52 -20.59871 99.16995 36059 ft 450 kts 309°
2026-05-04 20:53 -20.55397 99.12313 36043 ft 450 kts 309°
2026-05-04 20:53 -20.50937 99.07649 36054 ft 450 kts 309°
2026-05-04 20:54 -20.46488 99.03002 36050 ft 450 kts 309°
2026-05-04 20:54 -20.42008 98.98326 36053 ft 451 kts 309°
2026-05-04 20:55 -20.37526 98.93652 36055 ft 451 kts 309°
2026-05-04 20:55 -20.33038 98.88976 36057 ft 451 kts 309°
2026-05-04 20:56 -20.28546 98.84300 36056 ft 451 kts 309°
2026-05-04 20:56 -20.24064 98.79638 36031 ft 451 kts 309°
2026-05-04 20:57 -20.19566 98.74962 36039 ft 452 kts 309°
2026-05-04 20:57 -20.15069 98.70290 36047 ft 452 kts 309°
2026-05-04 20:58 -20.10595 98.65645 36044 ft 452 kts 310°
2026-05-04 20:58 -20.06096 98.60979 36039 ft 453 kts 310°
2026-05-04 20:59 -20.01580 98.56299 36038 ft 453 kts 310°
2026-05-04 20:59 -19.96863 98.51819 36036 ft 456 kts 313°
2026-05-04 21:00 -19.92053 98.47428 36020 ft 455 kts 313°
2026-05-04 21:00 -19.87254 98.43028 36044 ft 456 kts 313°
2026-05-04 21:01 -19.82442 98.38629 36045 ft 457 kts 313°
2026-05-04 21:01 -19.77622 98.34229 36042 ft 457 kts 313°
2026-05-04 21:02 -19.72823 98.29854 36040 ft 457 kts 313°
2026-05-04 21:02 -19.67996 98.25458 36037 ft 458 kts 313°
2026-05-04 21:03 -19.63154 98.21052 36042 ft 458 kts 313°
2026-05-04 21:03 -19.58319 98.16655 36030 ft 458 kts 313°
2026-05-04 21:04 -19.54297 98.13000 36031 ft 458 kts 313°
2026-05-04 21:04 -19.49448 98.08598 36033 ft 458 kts 314°
2026-05-04 21:05 -19.44602 98.04202 36032 ft 459 kts 314°
2026-05-04 21:05 -19.39751 97.99805 36034 ft 459 kts 314°
2026-05-04 21:06 -19.34928 97.95437 36032 ft 459 kts 314°
2026-05-04 21:06 -19.30071 97.91041 36036 ft 459 kts 314°
2026-05-04 21:07 -19.25218 97.86653 36023 ft 459 kts 314°
2026-05-04 21:07 -19.20354 97.82259 36021 ft 459 kts 314°
2026-05-04 21:08 -19.15495 97.77872 36028 ft 459 kts 314°
2026-05-04 21:08 -19.10646 97.73498 36027 ft 460 kts 314°
2026-05-04 21:09 -19.05774 97.69106 36024 ft 460 kts 314°
2026-05-04 21:09 -19.00892 97.64710 36026 ft 460 kts 314°
2026-05-04 21:10 -18.96052 97.60355 36006 ft 460 kts 314°
2026-05-04 21:10 -18.91170 97.55965 36016 ft 460 kts 314°
2026-05-04 21:11 -18.86290 97.51580 36018 ft 461 kts 314°
2026-05-04 21:11 -18.81401 97.47191 36015 ft 461 kts 314°
2026-05-04 21:12 -18.76508 97.42802 36019 ft 461 kts 314°
2026-05-04 21:12 -18.71611 97.38412 36019 ft 462 kts 314°
2026-05-04 21:13 -18.66738 97.34049 36019 ft 462 kts 314°
2026-05-04 21:13 -18.61846 97.29670 36007 ft 462 kts 314°
2026-05-04 21:14 -18.56950 97.25292 36004 ft 462 kts 314°
2026-05-04 21:14 -18.52040 97.20905 36006 ft 462 kts 314°
2026-05-04 21:15 -18.47134 97.16525 36010 ft 463 kts 314°
2026-05-04 21:15 -18.42218 97.12139 36012 ft 463 kts 314°
2026-05-04 21:16 -18.37312 97.07766 36012 ft 463 kts 314°
2026-05-04 21:16 -18.32424 97.03411 36011 ft 463 kts 314°
2026-05-04 21:17 -18.27506 96.99034 35989 ft 463 kts 315°
2026-05-04 21:17 -18.22578 96.94651 35995 ft 464 kts 315°
2026-05-04 21:18 -18.17647 96.90268 36005 ft 465 kts 315°
2026-05-04 21:18 -18.12727 96.85899 35996 ft 465 kts 315°
2026-05-04 21:19 -18.07785 96.81514 35993 ft 466 kts 315°
2026-05-04 21:19 -18.02829 96.77120 36007 ft 466 kts 315°
2026-05-04 21:20 -17.97874 96.72730 36019 ft 466 kts 315°
2026-05-04 21:20 -17.92913 96.68339 36020 ft 466 kts 315°
2026-05-04 21:21 -17.87953 96.63951 36011 ft 466 kts 315°
2026-05-04 21:21 -17.82992 96.59565 36009 ft 466 kts 315°
2026-05-04 21:22 -17.78062 96.55210 35991 ft 466 kts 315°
2026-05-04 21:22 -17.73107 96.50837 35985 ft 466 kts 315°
2026-05-04 21:23 -17.68145 96.46460 35988 ft 465 kts 315°
2026-05-04 21:23 -17.63186 96.42089 35971 ft 465 kts 315°
2026-05-04 21:24 -17.58215 96.37711 35993 ft 466 kts 315°
2026-05-04 21:24 -17.53252 96.33344 35996 ft 466 kts 315°
2026-05-04 21:25 -17.48309 96.28997 35994 ft 467 kts 315°
2026-05-04 21:25 -17.43330 96.24622 35994 ft 467 kts 315°
2026-05-04 21:26 -17.38342 96.20243 35998 ft 468 kts 315°
2026-05-04 21:26 -17.33352 96.15864 35994 ft 468 kts 315°
2026-05-04 21:27 -17.28364 96.11489 35984 ft 468 kts 316°
2026-05-04 21:27 -17.23371 96.07115 35986 ft 468 kts 316°
2026-05-04 21:28 -17.18371 96.02738 35990 ft 469 kts 316°
2026-05-04 21:28 -17.13364 95.98358 35990 ft 469 kts 316°
2026-05-04 21:29 -17.08363 95.93985 35991 ft 469 kts 316°
2026-05-04 21:29 -17.03356 95.89612 35992 ft 469 kts 316°
2026-05-04 21:30 -16.98340 95.85233 35992 ft 469 kts 316°
2026-05-04 21:30 -16.93328 95.80860 35985 ft 469 kts 316°
2026-05-04 21:31 -16.85841 95.74335 35986 ft 469 kts 316°
2026-05-04 21:32 -16.80828 95.69970 35983 ft 470 kts 316°
2026-05-04 21:32 -16.75815 95.65608 35982 ft 470 kts 316°
2026-05-04 21:33 -16.70808 95.61254 35983 ft 470 kts 316°
2026-05-04 21:33 -16.65792 95.56896 35983 ft 470 kts 316°
2026-05-04 21:34 -16.60764 95.52529 35985 ft 469 kts 317°
2026-05-04 21:34 -16.55743 95.48172 35984 ft 469 kts 317°
2026-05-04 21:35 -16.50753 95.43846 35979 ft 469 kts 317°
2026-05-04 21:35 -16.45749 95.39510 35977 ft 469 kts 317°
2026-05-04 21:36 -16.40732 95.35165 35976 ft 469 kts 317°
2026-05-04 21:36 -16.35716 95.30826 35977 ft 469 kts 317°
2026-05-04 21:37 -16.30701 95.26489 35974 ft 468 kts 317°
2026-05-04 21:37 -16.25683 95.22152 35963 ft 469 kts 317°
2026-05-04 21:38 -16.20660 95.17814 35962 ft 469 kts 317°
2026-05-04 21:38 -16.15663 95.13503 35966 ft 470 kts 317°
2026-05-04 21:39 -16.10627 95.09159 35966 ft 470 kts 317°
2026-05-04 21:39 -16.05595 95.04820 35968 ft 471 kts 317°
2026-05-04 21:40 -16.00545 95.00470 35972 ft 471 kts 317°
2026-05-04 21:40 -15.95493 94.96123 35974 ft 471 kts 317°
2026-05-04 21:41 -15.90452 94.91781 35960 ft 471 kts 317°
2026-05-04 21:41 -15.85426 94.87452 35964 ft 472 kts 317°
2026-05-04 21:42 -15.80365 94.83094 35967 ft 472 kts 317°
2026-05-04 21:42 -15.75307 94.78741 35968 ft 472 kts 317°
2026-05-04 21:43 -15.70254 94.74396 35965 ft 472 kts 317°
2026-05-04 21:43 -15.65195 94.70048 35964 ft 472 kts 317°
2026-05-04 21:44 -15.60131 94.65701 35965 ft 472 kts 317°
2026-05-04 21:44 -15.55068 94.61357 35946 ft 472 kts 318°
2026-05-04 21:45 -15.49999 94.57011 35954 ft 473 kts 318°
2026-05-04 21:45 -15.44924 94.52662 35959 ft 473 kts 318°
2026-05-04 21:46 -15.39870 94.48335 35961 ft 474 kts 318°
2026-05-04 21:46 -15.34787 94.43986 35963 ft 474 kts 318°
2026-05-04 21:47 -15.29700 94.39636 35957 ft 474 kts 318°
2026-05-04 21:47 -15.24608 94.35285 35957 ft 474 kts 318°
2026-05-04 21:48 -15.19520 94.30939 35946 ft 475 kts 318°
2026-05-04 21:48 -15.14429 94.26594 35946 ft 475 kts 318°
2026-05-04 21:49 -15.09322 94.22239 35952 ft 476 kts 318°
2026-05-04 21:49 -15.04242 94.17909 35962 ft 476 kts 318°
2026-05-04 21:50 -14.99127 94.13553 35959 ft 476 kts 318°
2026-05-04 21:50 -14.94011 94.09197 35955 ft 476 kts 318°
2026-05-04 21:51 -14.88900 94.04850 35950 ft 475 kts 319°
2026-05-04 21:51 -14.83795 94.00508 35936 ft 476 kts 319°
2026-05-04 21:52 -14.79537 93.96891 35939 ft 476 kts 319°
2026-05-04 21:52 -14.74421 93.92546 35940 ft 476 kts 319°
2026-05-04 21:53 -14.69296 93.88197 35942 ft 477 kts 319°
2026-05-04 21:53 -14.64169 93.83848 35947 ft 477 kts 319°
2026-05-04 21:54 -14.59069 93.79526 35938 ft 477 kts 319°
2026-05-04 21:54 -14.53939 93.75181 35943 ft 477 kts 319°
2026-05-04 21:55 -14.48803 93.70833 35942 ft 477 kts 319°
2026-05-04 21:55 -14.43676 93.66495 35942 ft 476 kts 319°
2026-05-04 21:56 -14.38548 93.62160 35937 ft 476 kts 319°
2026-05-04 21:56 -14.33418 93.57825 35935 ft 476 kts 319°
2026-05-04 21:57 -14.28326 93.53525 35934 ft 476 kts 319°
2026-05-04 21:57 -14.23189 93.49189 35931 ft 476 kts 319°
2026-05-04 21:58 -14.18065 93.44867 35923 ft 476 kts 319°
2026-05-04 21:58 -14.12966 93.40569 35926 ft 476 kts 319°
2026-05-04 21:59 -14.07833 93.36245 35929 ft 477 kts 319°
2026-05-04 21:59 -14.02702 93.31925 35926 ft 477 kts 319°
2026-05-04 22:00 -13.97554 93.27594 35929 ft 477 kts 319°
2026-05-04 22:00 -13.92407 93.23265 35934 ft 477 kts 319°
2026-05-04 22:01 -13.87262 93.18941 35929 ft 477 kts 319°
2026-05-04 22:01 -13.82142 93.14640 35923 ft 477 kts 320°
2026-05-04 22:02 -13.76992 93.10318 35924 ft 477 kts 320°
2026-05-04 22:02 -13.71839 93.05995 35921 ft 477 kts 320°
2026-05-04 22:03 -13.66690 93.01677 35921 ft 477 kts 320°
2026-05-04 22:03 -13.61576 92.97392 35919 ft 477 kts 320°
2026-05-04 22:04 -13.56430 92.93083 35919 ft 477 kts 320°
2026-05-04 22:04 -13.51283 92.88775 35913 ft 477 kts 320°
2026-05-04 22:05 -13.46139 92.84472 35905 ft 477 kts 320°
2026-05-04 22:05 -13.40993 92.80169 35906 ft 477 kts 320°
2026-05-04 22:06 -13.35870 92.75889 35909 ft 477 kts 320°
2026-05-04 22:06 -13.30722 92.71590 35911 ft 477 kts 320°
2026-05-04 22:07 -13.25572 92.67292 35910 ft 477 kts 320°
2026-05-04 22:07 -13.20416 92.62990 35910 ft 477 kts 320°
2026-05-04 22:08 -13.15254 92.58687 35908 ft 478 kts 320°
2026-05-04 22:08 -13.10117 92.54407 35894 ft 478 kts 320°
2026-05-04 22:09 -13.05015 92.50158 35902 ft 479 kts 320°
2026-05-04 22:09 -12.99878 92.45883 35902 ft 479 kts 320°
2026-05-04 22:10 -12.94700 92.41575 35909 ft 480 kts 320°
2026-05-04 22:10 -12.89508 92.37259 35908 ft 480 kts 320°
2026-05-04 22:11 -12.84323 92.32951 35905 ft 480 kts 320°
2026-05-04 22:11 -12.79135 92.28642 35906 ft 480 kts 320°
2026-05-04 22:12 -12.73949 92.24337 35889 ft 480 kts 320°
2026-05-04 22:12 -12.68755 92.20029 35896 ft 480 kts 320°
2026-05-04 22:13 -12.63589 92.15745 35892 ft 481 kts 320°
2026-05-04 22:13 -12.58379 92.11428 35896 ft 481 kts 320°
2026-05-04 22:14 -12.53175 92.07118 35899 ft 481 kts 320°
2026-05-04 22:14 -12.47996 92.02832 35896 ft 481 kts 320°
2026-05-04 22:15 -12.42814 91.98544 35890 ft 481 kts 320°
2026-05-04 22:15 -12.37612 91.94242 35889 ft 481 kts 321°
2026-05-04 22:16 -12.32401 91.89935 35886 ft 482 kts 321°
2026-05-04 22:16 -12.27184 91.85626 35881 ft 482 kts 321°
2026-05-04 22:17 -12.21991 91.81339 35892 ft 482 kts 321°
2026-05-04 22:17 -12.16762 91.77024 35878 ft 483 kts 321°
2026-05-04 22:18 -12.11534 91.72712 35901 ft 482 kts 321°
2026-05-04 22:18 -12.06301 91.68398 35887 ft 482 kts 321°
2026-05-04 22:19 -12.01078 91.64094 35863 ft 483 kts 322°
2026-05-04 22:19 -11.95845 91.59785 35871 ft 483 kts 322°
2026-05-04 22:20 -11.90634 91.55497 35885 ft 484 kts 322°
2026-05-04 22:20 -11.85388 91.51182 35880 ft 484 kts 321°
2026-05-04 22:21 -11.80135 91.46863 35878 ft 485 kts 321°
2026-05-04 22:21 -11.74879 91.42544 35888 ft 485 kts 321°
2026-05-04 22:22 -11.69628 91.38230 35885 ft 485 kts 321°
2026-05-04 22:22 -11.64371 91.33914 35895 ft 484 kts 322°
2026-05-04 22:23 -11.59120 91.29605 35883 ft 484 kts 322°
2026-05-04 22:23 -11.53894 91.25320 35879 ft 483 kts 322°
2026-05-04 22:24 -11.48656 91.21027 35879 ft 482 kts 322°
2026-05-04 22:24 -11.43459 91.16768 35870 ft 482 kts 322°
2026-05-04 22:25 -11.38234 91.12489 35835 ft 483 kts 322°
2026-05-04 22:25 -11.32980 91.08189 35844 ft 485 kts 322°
2026-05-04 22:26 -11.27712 91.03879 35870 ft 486 kts 322°
2026-05-04 22:26 -11.22435 90.99564 35879 ft 487 kts 322°
2026-05-04 22:27 -11.17144 90.95239 35885 ft 487 kts 322°
2026-05-04 22:27 -11.11855 90.90919 35888 ft 488 kts 322°
2026-05-04 22:28 -11.06561 90.86596 35887 ft 488 kts 322°
2026-05-04 22:28 -11.01267 90.82275 35881 ft 487 kts 322°
2026-05-04 22:29 -10.96010 90.77986 35877 ft 487 kts 322°
2026-05-04 22:29 -10.90695 90.73651 35857 ft 487 kts 322°
2026-05-04 22:30 -10.85440 90.69370 35854 ft 487 kts 322°
2026-05-04 22:30 -10.80139 90.65051 35861 ft 488 kts 322°
2026-05-04 22:31 -10.74835 90.60732 35863 ft 489 kts 322°
2026-05-04 22:31 -10.69550 90.56431 35866 ft 489 kts 322°
2026-05-04 22:32 -10.64205 90.52083 35869 ft 489 kts 322°
2026-05-04 22:32 -10.58922 90.47787 35871 ft 489 kts 322°
2026-05-04 22:33 -10.53594 90.43457 35872 ft 489 kts 322°
2026-05-04 22:33 -10.48275 90.39136 35869 ft 489 kts 322°
2026-05-04 22:34 -10.42965 90.34824 35877 ft 488 kts 322°
2026-05-04 22:34 -10.37668 90.30525 35866 ft 488 kts 322°
2026-05-04 22:35 -10.32399 90.26250 35858 ft 487 kts 322°
2026-05-04 22:35 -10.27093 90.21948 35850 ft 487 kts 322°
2026-05-04 22:36 -10.21800 90.17656 35852 ft 487 kts 322°
2026-05-04 22:36 -10.16502 90.13364 35859 ft 487 kts 322°
2026-05-04 22:37 -10.11195 90.09064 35838 ft 488 kts 322°
2026-05-04 22:37 -10.05926 90.04797 35863 ft 488 kts 322°
2026-05-04 22:38 -10.00622 90.00494 35861 ft 488 kts 321°
2026-05-04 22:38 -9.95733 89.95711 35867 ft 488 kts 316°
2026-05-04 22:39 -9.90936 89.90838 35870 ft 488 kts 316°
2026-05-04 22:39 -9.86125 89.85970 35866 ft 488 kts 316°
2026-05-04 22:40 -9.81315 89.81107 35851 ft 488 kts 315°
2026-05-04 22:40 -9.76510 89.76251 35864 ft 488 kts 316°
2026-05-04 22:41 -9.71709 89.71401 35858 ft 487 kts 316°
2026-05-04 22:41 -9.66913 89.66560 35839 ft 487 kts 316°
2026-05-04 22:42 -9.62121 89.61723 35850 ft 487 kts 316°
2026-05-04 22:42 -9.58120 89.57687 35863 ft 486 kts 316°
2026-05-04 22:43 -9.52550 89.52070 35848 ft 486 kts 316°
2026-05-04 22:43 -9.48526 89.48014 35845 ft 487 kts 316°
2026-05-04 22:44 -9.43747 89.43199 35856 ft 487 kts 316°
2026-05-04 22:44 -9.38945 89.38363 35841 ft 487 kts 315°
2026-05-04 22:45 -9.34130 89.33516 35841 ft 488 kts 316°
2026-05-04 22:45 -9.26903 89.26244 35863 ft 488 kts 316°
2026-05-04 22:46 -9.22090 89.21403 35850 ft 488 kts 316°
2026-05-04 22:46 -9.17267 89.16556 35857 ft 488 kts 316°
2026-05-04 22:47 -9.12447 89.11712 35850 ft 488 kts 316°
2026-05-04 22:47 -9.07622 89.06865 35858 ft 488 kts 316°
2026-05-04 22:48 -9.02834 89.02057 35849 ft 488 kts 316°
2026-05-04 22:48 -8.98018 88.97224 35849 ft 488 kts 316°
2026-05-04 22:49 -8.93203 88.92394 35852 ft 487 kts 316°
2026-05-04 22:49 -8.88394 88.87571 35842 ft 488 kts 316°
2026-05-04 22:50 -8.83572 88.82737 35840 ft 488 kts 316°
2026-05-04 22:50 -8.78748 88.77903 35843 ft 488 kts 316°
2026-05-04 22:51 -8.73925 88.73071 35850 ft 488 kts 316°
2026-05-04 22:51 -8.69139 88.68279 35843 ft 488 kts 316°
2026-05-04 22:52 -8.64310 88.63446 35850 ft 488 kts 316°
2026-05-04 22:52 -8.59483 88.58616 35845 ft 488 kts 316°
2026-05-04 22:53 -8.54654 88.53786 35845 ft 488 kts 316°
2026-05-04 22:53 -8.49822 88.48955 35841 ft 488 kts 316°
2026-05-04 22:54 -8.44991 88.44126 35833 ft 488 kts 316°
2026-05-04 22:54 -8.40164 88.39305 35840 ft 488 kts 316°
2026-05-04 22:55 -8.35328 88.34474 35835 ft 489 kts 316°
2026-05-04 22:55 -8.30524 88.29679 35842 ft 489 kts 316°
2026-05-04 22:56 -8.25672 88.24837 35849 ft 489 kts 316°
2026-05-04 22:56 -8.20831 88.20008 35840 ft 490 kts 316°
2026-05-04 22:57 -8.15994 88.15184 35842 ft 490 kts 316°
2026-05-04 22:57 -8.11143 88.10348 35844 ft 490 kts 316°
2026-05-04 22:58 -8.06297 88.05520 35858 ft 489 kts 316°
2026-05-04 22:58 -8.01484 88.00725 35849 ft 489 kts 316°
2026-05-04 22:59 -7.96641 87.95902 35846 ft 488 kts 316°
2026-05-04 22:59 -7.91799 87.91082 35837 ft 489 kts 316°
2026-05-04 23:00 -7.86957 87.86263 35834 ft 489 kts 316°
2026-05-04 23:00 -7.82119 87.81451 35834 ft 489 kts 316°
2026-05-04 23:01 -7.77269 87.76628 35846 ft 489 kts 316°
2026-05-04 23:01 -7.72446 87.71834 35852 ft 489 kts 316°
2026-05-04 23:02 -7.67593 87.67012 35839 ft 490 kts 316°
2026-05-04 23:02 -7.62733 87.62184 35841 ft 490 kts 316°
2026-05-04 23:03 -7.57873 87.57358 35828 ft 490 kts 316°
2026-05-04 23:03 -7.53020 87.52539 35850 ft 490 kts 316°
2026-05-04 23:04 -7.48163 87.47719 35839 ft 490 kts 316°
2026-05-04 23:04 -7.43321 87.42917 35840 ft 491 kts 316°
2026-05-04 23:05 -7.38452 87.38087 35852 ft 491 kts 316°
2026-05-04 23:05 -7.33586 87.33263 35832 ft 491 kts 316°
2026-05-04 23:06 -7.28704 87.28425 35824 ft 492 kts 316°
2026-05-04 23:06 -7.23820 87.23585 35837 ft 493 kts 316°
2026-05-04 23:07 -7.18929 87.18740 35848 ft 493 kts 317°
2026-05-04 23:07 -7.14058 87.13918 35831 ft 494 kts 317°
2026-05-04 23:08 -7.09157 87.09067 35847 ft 494 kts 316°
2026-05-04 23:08 -7.04246 87.04206 35833 ft 495 kts 316°
2026-05-04 23:09 -6.99334 86.99345 35855 ft 494 kts 317°
2026-05-04 23:09 -6.94467 86.94462 35852 ft 494 kts 316°
2026-05-04 23:10 -6.89595 86.89551 35812 ft 496 kts 316°
2026-05-04 23:10 -6.84737 86.84664 35819 ft 497 kts 316°
2026-05-04 23:11 -6.79831 86.79734 35825 ft 499 kts 316°
2026-05-04 23:11 -6.74914 86.74796 35830 ft 500 kts 316°
2026-05-04 23:12 -6.69980 86.69843 35832 ft 501 kts 316°
2026-05-04 23:12 -6.65053 86.64897 35840 ft 501 kts 316°
2026-05-04 23:13 -6.60145 86.59972 35840 ft 501 kts 316°
2026-05-04 23:13 -6.55209 86.55021 35815 ft 501 kts 316°
2026-05-04 23:14 -6.50272 86.50070 35818 ft 502 kts 316°
2026-05-04 23:14 -6.45320 86.45105 35817 ft 502 kts 316°
2026-05-04 23:15 -6.40364 86.40137 35826 ft 503 kts 316°
2026-05-04 23:15 -6.35399 86.35163 35826 ft 503 kts 316°
2026-05-04 23:16 -6.30440 86.30195 35826 ft 503 kts 316°
2026-05-04 23:16 -6.25506 86.25253 35822 ft 503 kts 316°
2026-05-04 23:17 -6.20548 86.20290 35818 ft 503 kts 316°
2026-05-04 23:17 -6.15588 86.15327 35817 ft 503 kts 316°
2026-05-04 23:18 -6.10626 86.10362 35814 ft 503 kts 316°
2026-05-04 23:18 -6.05672 86.05405 35818 ft 503 kts 316°
2026-05-04 23:19 -6.00713 86.00446 35819 ft 503 kts 316°
2026-05-04 23:19 -5.95756 85.95491 35820 ft 503 kts 316°
2026-05-04 23:20 -5.90792 85.90529 35817 ft 503 kts 316°
2026-05-04 23:20 -5.85828 85.85570 35815 ft 503 kts 316°
2026-05-04 23:21 -5.80895 85.80642 35815 ft 503 kts 316°
2026-05-04 23:21 -5.75934 85.75687 35814 ft 503 kts 316°
2026-05-04 23:22 -5.70971 85.70732 35814 ft 503 kts 316°
2026-05-04 23:22 -5.66013 85.65783 35813 ft 503 kts 316°
2026-05-04 23:23 -5.61044 85.60825 35814 ft 503 kts 316°
2026-05-04 23:23 -5.56076 85.55868 35815 ft 503 kts 316°
2026-05-04 23:24 -5.51114 85.50919 35816 ft 503 kts 316°
2026-05-04 23:24 -5.46182 85.46001 35816 ft 503 kts 316°
2026-05-04 23:25 -5.41213 85.41047 35805 ft 504 kts 316°
2026-05-04 23:25 -5.36238 85.36088 35809 ft 504 kts 316°
2026-05-04 23:26 -5.31259 85.31128 35814 ft 505 kts 316°
2026-05-04 23:26 -5.26267 85.26155 35816 ft 505 kts 316°
2026-05-04 23:27 -5.21276 85.21184 35819 ft 505 kts 316°
2026-05-04 23:27 -5.16317 85.16246 35820 ft 505 kts 316°
2026-05-04 23:28 -5.11287 85.11239 35819 ft 505 kts 316°
2026-05-04 23:28 -5.06333 85.06309 35819 ft 505 kts 316°
2026-05-04 23:29 -5.01334 85.01333 35818 ft 505 kts 316°
2026-05-04 23:29 -4.96354 84.96358 35816 ft 505 kts 316°
2026-05-04 23:30 -4.91400 84.91368 35823 ft 504 kts 316°
2026-05-04 23:30 -4.86498 84.86437 35816 ft 503 kts 316°
2026-05-04 23:31 -4.81530 84.81443 35813 ft 503 kts 316°
2026-05-04 23:31 -4.76611 84.76502 35811 ft 503 kts 316°
2026-05-04 23:32 -4.71665 84.71535 35810 ft 503 kts 316°
2026-05-04 23:32 -4.67558 84.67410 35810 ft 503 kts 316°
2026-05-04 23:33 -4.62617 84.62450 35818 ft 502 kts 316°
2026-05-04 23:33 -4.57674 84.57488 35815 ft 502 kts 316°
2026-05-04 23:34 -4.52737 84.52534 35813 ft 502 kts 316°
2026-05-04 23:34 -4.47802 84.47583 35812 ft 502 kts 316°
2026-05-04 23:35 -4.42919 84.42685 35811 ft 502 kts 316°
2026-05-04 23:35 -4.37982 84.37733 35812 ft 502 kts 316°
2026-05-04 23:36 -4.33044 84.32782 35813 ft 502 kts 316°
2026-05-04 23:36 -4.28099 84.27825 35825 ft 502 kts 316°
2026-05-04 23:37 -4.23196 84.22910 35825 ft 501 kts 316°
2026-05-04 23:37 -4.18272 84.17975 35817 ft 501 kts 316°
2026-05-04 23:38 -4.13337 84.13030 35815 ft 500 kts 316°
2026-05-04 23:38 -4.08417 84.08101 35814 ft 500 kts 316°
2026-05-04 23:39 -4.03503 84.03180 35813 ft 499 kts 316°
2026-05-04 23:39 -3.98590 83.98260 35811 ft 499 kts 316°
2026-05-04 23:40 -3.93674 83.93338 35810 ft 499 kts 316°
2026-05-04 23:40 -3.88796 83.88455 35816 ft 499 kts 316°
2026-05-04 23:41 -3.83885 83.83539 35819 ft 499 kts 316°
2026-05-04 23:41 -3.78965 83.78617 35824 ft 500 kts 316°
2026-05-04 23:42 -3.74037 83.73685 35823 ft 499 kts 317°
2026-05-04 23:42 -3.69129 83.68775 35822 ft 499 kts 317°
2026-05-04 23:43 -3.64218 83.63864 35821 ft 499 kts 317°
2026-05-04 23:43 -3.59332 83.58978 35820 ft 499 kts 317°
2026-05-04 23:44 -3.54421 83.54067 35820 ft 499 kts 317°
2026-05-04 23:44 -3.49517 83.49165 35819 ft 499 kts 317°
2026-05-04 23:45 -3.44602 83.44252 35819 ft 499 kts 317°
2026-05-04 23:45 -3.39689 83.39342 35819 ft 499 kts 317°
2026-05-04 23:46 -3.34803 83.34460 35820 ft 499 kts 317°
2026-05-04 23:46 -3.29887 83.29548 35823 ft 499 kts 317°
2026-05-04 23:47 -3.24963 83.24630 35824 ft 499 kts 317°
2026-05-04 23:47 -3.20044 83.19716 35824 ft 499 kts 317°
2026-05-04 23:48 -3.15129 83.14808 35831 ft 499 kts 317°
2026-05-04 23:48 -3.10212 83.09898 35830 ft 499 kts 317°
2026-05-04 23:49 -3.05334 83.05027 35826 ft 499 kts 317°
2026-05-04 23:49 -3.00427 83.00130 35824 ft 498 kts 316°
2026-05-04 23:50 -2.95514 82.95226 35824 ft 498 kts 316°
2026-05-04 23:50 -2.90608 82.90329 35823 ft 498 kts 316°
2026-05-04 23:51 -2.85707 82.85439 35827 ft 498 kts 316°
2026-05-04 23:51 -2.80811 82.80554 35827 ft 498 kts 316°
2026-05-04 23:52 -2.75910 82.75665 35837 ft 498 kts 316°
2026-05-04 23:52 -2.71010 82.70777 35832 ft 497 kts 316°
2026-05-04 23:53 -2.66143 82.65923 35831 ft 497 kts 316°
2026-05-04 23:53 -2.61247 82.61041 35823 ft 497 kts 316°
2026-05-04 23:54 -2.56354 82.56162 35821 ft 497 kts 316°
2026-05-04 23:54 -2.51459 82.51282 35821 ft 497 kts 316°
2026-05-04 23:55 -2.46580 82.46418 35826 ft 497 kts 316°
2026-05-04 23:56 -2.39230 82.39091 35828 ft 497 kts 316°
2026-05-04 23:56 -2.34330 82.34208 35833 ft 497 kts 316°
2026-05-04 23:57 -2.29458 82.29353 35832 ft 497 kts 316°
2026-05-04 23:57 -2.24554 82.24466 35827 ft 498 kts 317°
2026-05-04 23:58 -2.19640 82.19571 35830 ft 498 kts 316°
2026-05-04 23:58 -2.14724 82.14673 35837 ft 499 kts 316°
2026-05-04 23:59 -2.09801 82.09770 35837 ft 499 kts 316°
2026-05-04 23:59 -2.04883 82.04870 35845 ft 500 kts 316°
2026-05-05 00:00 -2.00021 81.99901 35845 ft 500 kts 312°
2026-05-05 00:00 -1.95808 81.94409 35845 ft 501 kts 308°
2026-05-05 00:01 -1.91628 81.88821 35849 ft 501 kts 308°
2026-05-05 00:01 -1.87441 81.83235 35829 ft 502 kts 308°
2026-05-05 00:02 -1.83246 81.77637 35843 ft 503 kts 308°
2026-05-05 00:02 -1.79075 81.72068 35843 ft 503 kts 308°
2026-05-05 00:03 -1.74875 81.66460 35846 ft 504 kts 308°
2026-05-05 00:03 -1.70671 81.60848 35846 ft 504 kts 308°
2026-05-05 00:04 -1.66458 81.55225 35847 ft 505 kts 308°
2026-05-05 00:04 -1.62242 81.49599 35855 ft 505 kts 308°
2026-05-05 00:05 -1.58056 81.44012 35848 ft 505 kts 308°
2026-05-05 00:05 -1.53841 81.38388 35851 ft 505 kts 308°
2026-05-05 00:06 -1.49628 81.32766 35843 ft 504 kts 308°
2026-05-05 00:06 -1.45422 81.27155 35849 ft 504 kts 308°
2026-05-05 00:07 -1.41227 81.21558 35847 ft 504 kts 308°
2026-05-05 00:07 -1.37028 81.15956 35848 ft 503 kts 308°
2026-05-05 00:08 -1.32856 81.10389 35828 ft 504 kts 308°
2026-05-05 00:08 -1.28653 81.04784 35843 ft 504 kts 308°
2026-05-05 00:09 -1.24438 80.99161 35830 ft 505 kts 309°
2026-05-05 00:09 -1.20228 80.93547 35842 ft 505 kts 308°
2026-05-05 00:10 -1.16018 80.87933 35853 ft 505 kts 308°
2026-05-05 00:10 -1.11806 80.82315 35853 ft 504 kts 309°
2026-05-05 00:11 -1.07599 80.76707 35857 ft 504 kts 308°
2026-05-05 00:11 -1.03400 80.71106 35846 ft 503 kts 309°
2026-05-05 00:12 -0.99198 80.65503 35840 ft 503 kts 309°
2026-05-05 00:12 -0.95002 80.59909 35841 ft 503 kts 309°
2026-05-05 00:13 -0.90828 80.54344 35843 ft 503 kts 309°
2026-05-05 00:13 -0.86644 80.48768 35864 ft 502 kts 308°
2026-05-05 00:14 -0.82454 80.43181 35859 ft 501 kts 308°
2026-05-05 00:14 -0.78284 80.37621 35847 ft 500 kts 308°
2026-05-05 00:15 -0.74115 80.32065 35853 ft 499 kts 308°
2026-05-05 00:15 -0.69957 80.26523 35846 ft 498 kts 307°
2026-05-05 00:16 -0.65807 80.20990 35841 ft 498 kts 307°
2026-05-05 00:16 -0.61651 80.15451 35844 ft 497 kts 307°
2026-05-05 00:17 -0.57527 80.09954 35850 ft 497 kts 308°
2026-05-05 00:17 -0.53381 80.04429 35847 ft 497 kts 307°
2026-05-05 00:18 -0.49232 79.98898 35851 ft 497 kts 308°
2026-05-05 00:18 -0.45082 79.93368 35846 ft 497 kts 307°
2026-05-05 00:19 -0.40925 79.87827 35845 ft 498 kts 307°
2026-05-05 00:19 -0.36789 79.82317 35863 ft 498 kts 307°
2026-05-05 00:20 -0.32633 79.76778 35870 ft 498 kts 307°
2026-05-05 00:20 -0.28484 79.71248 35867 ft 497 kts 307°
2026-05-05 00:21 -0.24333 79.65716 35874 ft 496 kts 307°
2026-05-05 00:21 -0.20201 79.60210 35870 ft 495 kts 307°
2026-05-05 00:22 -0.16076 79.54713 35849 ft 494 kts 307°
2026-05-05 00:22 -0.12643 79.50139 35845 ft 494 kts 307°
2026-05-05 00:23 -0.07849 79.43750 35842 ft 494 kts 307°
2026-05-05 00:23 -0.04386 79.39135 35849 ft 495 kts 307°
2026-05-05 00:24 -0.00286 79.33672 35860 ft 495 kts 307°
2026-05-05 00:24 0.03864 79.28143 35830 ft 497 kts 307°
2026-05-05 00:25 0.08021 79.22603 35849 ft 499 kts 307°
2026-05-05 00:25 0.12204 79.17028 35861 ft 501 kts 307°
2026-05-05 00:26 0.16350 79.11502 35871 ft 502 kts 307°
2026-05-05 00:26 0.20541 79.05918 35876 ft 502 kts 307°
2026-05-05 00:27 0.24736 79.00327 35890 ft 502 kts 307°
2026-05-05 00:27 0.28918 78.94755 35890 ft 500 kts 307°
2026-05-05 00:28 0.33085 78.89201 35881 ft 499 kts 307°
2026-05-05 00:28 0.37218 78.83693 35870 ft 498 kts 307°
2026-05-05 00:29 0.41371 78.78159 35856 ft 497 kts 307°
2026-05-05 00:29 0.45513 78.72640 35856 ft 496 kts 307°
2026-05-05 00:30 0.49650 78.67124 35879 ft 494 kts 307°
2026-05-05 00:30 0.53763 78.61642 35893 ft 492 kts 308°
2026-05-05 00:31 0.57859 78.56184 35879 ft 491 kts 308°
2026-05-05 00:31 0.61954 78.50726 35868 ft 489 kts 308°
2026-05-05 00:32 0.66010 78.45320 35862 ft 488 kts 308°
2026-05-05 00:32 0.70082 78.39893 35855 ft 487 kts 308°
2026-05-05 00:33 0.74146 78.34475 35846 ft 487 kts 308°
2026-05-05 00:33 0.78210 78.29061 35825 ft 487 kts 307°
2026-05-05 00:34 0.82289 78.23622 35870 ft 493 kts 307°
2026-05-05 00:34 0.86417 78.18117 35867 ft 495 kts 307°
2026-05-05 00:35 0.90523 78.12643 35868 ft 493 kts 307°
2026-05-05 00:35 0.94636 78.07161 35870 ft 493 kts 307°
2026-05-05 00:36 0.98765 78.01656 35864 ft 496 kts 307°
2026-05-05 00:36 1.03254 77.96507 35879 ft 495 kts 313°
2026-05-05 00:37 1.07952 77.91471 35873 ft 496 kts 313°
2026-05-05 00:37 1.12660 77.86407 35865 ft 497 kts 313°
2026-05-05 00:38 1.17375 77.81339 35861 ft 499 kts 313°
2026-05-05 00:38 1.22110 77.76250 35870 ft 500 kts 313°
2026-05-05 00:39 1.26835 77.71173 35876 ft 501 kts 313°
2026-05-05 00:39 1.31583 77.66070 35888 ft 501 kts 313°
2026-05-05 00:40 1.36330 77.60970 35882 ft 501 kts 313°
2026-05-05 00:40 1.41078 77.55863 35844 ft 503 kts 314°
2026-05-05 00:41 1.45851 77.50734 35838 ft 505 kts 314°
2026-05-05 00:41 1.50607 77.45623 35847 ft 506 kts 314°
2026-05-05 00:42 1.55406 77.40465 35880 ft 507 kts 314°
2026-05-05 00:42 1.60218 77.35290 35861 ft 509 kts 314°
2026-05-05 00:43 1.65050 77.30096 35872 ft 510 kts 314°
2026-05-05 00:43 1.69847 77.24937 35887 ft 510 kts 314°
2026-05-05 00:44 1.74679 77.19742 35888 ft 510 kts 313°
2026-05-05 00:44 1.79508 77.14548 35905 ft 509 kts 313°
2026-05-05 00:45 1.84327 77.09363 35896 ft 508 kts 313°
2026-05-05 00:45 1.89125 77.04202 35873 ft 507 kts 314°
2026-05-05 00:46 1.93909 76.99057 35881 ft 506 kts 313°
2026-05-05 00:46 1.98690 76.93913 35869 ft 505 kts 313°
2026-05-05 00:47 2.03472 76.88767 35861 ft 504 kts 313°
2026-05-05 00:47 2.08220 76.83659 35836 ft 505 kts 313°
2026-05-05 00:48 2.12983 76.78534 35835 ft 505 kts 313°
2026-05-05 00:48 2.17800 76.73349 35840 ft 506 kts 313°
2026-05-05 00:49 2.22608 76.68174 35847 ft 508 kts 313°
2026-05-05 00:49 2.27420 76.62997 35882 ft 508 kts 313°
2026-05-05 00:50 2.32195 76.57854 35890 ft 508 kts 313°
2026-05-05 00:50 2.37012 76.52667 35873 ft 508 kts 313°
2026-05-05 00:51 2.41822 76.47487 35871 ft 507 kts 313°
2026-05-05 00:51 2.46597 76.42346 35849 ft 508 kts 313°
2026-05-05 00:52 2.51407 76.37165 35838 ft 509 kts 313°
2026-05-05 00:52 2.56227 76.31974 35880 ft 509 kts 313°
2026-05-05 00:53 2.61036 76.26792 35852 ft 510 kts 313°
2026-05-05 00:53 2.65872 76.21582 35870 ft 510 kts 313°
2026-05-05 00:54 2.70695 76.16386 35860 ft 510 kts 313°
2026-05-05 00:54 2.75522 76.11183 35890 ft 509 kts 313°
2026-05-05 00:55 2.80344 76.05986 35840 ft 511 kts 313°
2026-05-05 00:55 2.85172 76.00781 35885 ft 510 kts 313°
2026-05-05 00:56 2.89970 75.95609 35878 ft 510 kts 313°
2026-05-05 00:56 2.94785 75.90416 35879 ft 508 kts 313°
2026-05-05 00:57 2.99596 75.85229 35860 ft 508 kts 313°
2026-05-05 00:57 3.04381 75.80067 35872 ft 506 kts 313°
2026-05-05 00:58 3.09175 75.74894 35826 ft 507 kts 313°
2026-05-05 00:58 3.13976 75.69715 35818 ft 508 kts 314°
2026-05-05 00:59 3.18763 75.64551 35829 ft 510 kts 314°
2026-05-05 00:59 3.23585 75.59348 35861 ft 510 kts 314°
2026-05-05 01:00 3.28419 75.54130 35875 ft 511 kts 313°
2026-05-05 01:00 3.33260 75.48904 35869 ft 512 kts 314°
2026-05-05 01:01 3.38090 75.43690 35898 ft 511 kts 313°
2026-05-05 01:01 3.42908 75.38486 35873 ft 510 kts 314°
2026-05-05 01:02 3.47731 75.33278 35882 ft 509 kts 313°
2026-05-05 01:02 3.52532 75.28090 35848 ft 508 kts 314°
2026-05-05 01:03 3.57337 75.22900 35866 ft 507 kts 313°
2026-05-05 01:03 3.62125 75.17726 35858 ft 506 kts 314°
2026-05-05 01:04 3.66884 75.12584 35860 ft 506 kts 314°
2026-05-05 01:04 3.74076 75.04811 35838 ft 508 kts 313°
2026-05-05 01:05 3.78890 74.99605 35883 ft 508 kts 313°
2026-05-05 01:05 3.83695 74.94408 35879 ft 509 kts 313°
2026-05-05 01:06 3.88515 74.89195 35861 ft 510 kts 313°
2026-05-05 01:06 3.93330 74.83986 35894 ft 509 kts 313°
2026-05-05 01:07 3.98124 74.78799 35886 ft 508 kts 313°
2026-05-05 01:07 4.02921 74.73608 35879 ft 507 kts 313°
2026-05-05 01:08 4.07675 74.68463 35878 ft 507 kts 313°
2026-05-05 01:08 4.12463 74.63279 35859 ft 507 kts 313°
2026-05-05 01:09 4.17261 74.58085 35858 ft 507 kts 313°
2026-05-05 01:09 4.22049 74.52898 35845 ft 508 kts 313°
2026-05-05 01:10 4.26850 74.47698 35860 ft 509 kts 313°
2026-05-05 01:10 4.31670 74.42476 35887 ft 509 kts 313°
2026-05-05 01:11 4.35672 74.38139 35869 ft 510 kts 313°
2026-05-05 01:11 4.40485 74.32923 35902 ft 508 kts 313°
2026-05-05 01:12 4.46078 74.26861 35872 ft 512 kts 313°
2026-05-05 01:12 4.50106 74.22494 35872 ft 510 kts 313°
2026-05-05 01:13 4.54916 74.17277 35875 ft 510 kts 313°
2026-05-05 01:13 4.59712 74.12075 35871 ft 506 kts 313°
2026-05-05 01:14 4.64495 74.06885 35866 ft 505 kts 313°
2026-05-05 01:14 4.69266 74.01708 35829 ft 506 kts 313°
2026-05-05 01:15 4.74054 73.96510 35872 ft 508 kts 313°
2026-05-05 01:15 4.78863 73.91290 35875 ft 508 kts 313°
2026-05-05 01:16 4.83638 73.86104 35876 ft 509 kts 313°
2026-05-05 01:16 4.88463 73.80864 35875 ft 511 kts 313°
2026-05-05 01:17 4.93291 73.75619 35878 ft 511 kts 313°
2026-05-05 01:17 4.98104 73.70389 35881 ft 510 kts 313°
2026-05-05 01:18 5.02917 73.65158 35878 ft 510 kts 313°
2026-05-05 01:18 5.07690 73.59970 35884 ft 508 kts 313°
2026-05-05 01:19 5.12474 73.54766 35877 ft 508 kts 313°
2026-05-05 01:19 5.17282 73.49538 35895 ft 507 kts 313°
2026-05-05 01:20 5.22064 73.44335 35885 ft 507 kts 313°
2026-05-05 01:20 5.26845 73.39132 35864 ft 507 kts 313°
2026-05-05 01:21 5.31606 73.33950 35888 ft 507 kts 313°
2026-05-05 01:21 5.36382 73.28750 35869 ft 507 kts 313°
2026-05-05 01:22 5.41172 73.23534 35859 ft 508 kts 313°
2026-05-05 01:22 5.45960 73.18318 35881 ft 509 kts 313°
2026-05-05 01:23 5.50757 73.13092 35879 ft 509 kts 313°
2026-05-05 01:23 5.55549 73.07870 35884 ft 509 kts 313°
2026-05-05 01:24 5.60344 73.02642 35882 ft 509 kts 313°
2026-05-05 01:24 5.65153 72.97399 35884 ft 510 kts 313°
2026-05-05 01:25 5.69959 72.92158 35888 ft 510 kts 312°
2026-05-05 01:25 5.74759 72.86921 35885 ft 510 kts 312°
2026-05-05 01:26 5.79530 72.81714 35891 ft 509 kts 312°
2026-05-05 01:26 5.84330 72.76475 35884 ft 509 kts 312°
2026-05-05 01:27 5.89107 72.71258 35882 ft 508 kts 312°
2026-05-05 01:27 5.93886 72.66040 35894 ft 507 kts 312°
2026-05-05 01:28 5.98663 72.60821 35889 ft 506 kts 312°
2026-05-05 01:28 6.03402 72.55643 35878 ft 506 kts 312°
2026-05-05 01:29 6.08178 72.50423 35871 ft 507 kts 312°
2026-05-05 01:29 6.12936 72.45220 35880 ft 507 kts 312°
2026-05-05 01:30 6.17716 72.39992 35883 ft 507 kts 312°
2026-05-05 01:30 6.22488 72.34771 35898 ft 507 kts 312°
2026-05-05 01:31 6.27237 72.29575 35896 ft 507 kts 312°
2026-05-05 01:31 6.32014 72.24346 35881 ft 508 kts 312°
2026-05-05 01:32 6.36802 72.19103 35889 ft 508 kts 312°
2026-05-05 01:32 6.41564 72.13887 35886 ft 508 kts 312°
2026-05-05 01:33 6.46342 72.08652 35886 ft 508 kts 312°
2026-05-05 01:33 6.51117 72.03420 35885 ft 508 kts 312°
2026-05-05 01:34 6.55861 71.98218 35901 ft 507 kts 312°
2026-05-05 01:34 6.60634 71.92984 35892 ft 507 kts 312°
2026-05-05 01:35 6.65398 71.87759 35879 ft 506 kts 312°
2026-05-05 01:35 6.70162 71.82532 35876 ft 506 kts 312°
2026-05-05 01:36 6.74923 71.77306 35879 ft 506 kts 312°
2026-05-05 01:36 6.79644 71.72122 35878 ft 506 kts 312°
2026-05-05 01:37 6.84407 71.66891 35883 ft 506 kts 312°
2026-05-05 01:37 6.89159 71.61670 35889 ft 506 kts 312°
2026-05-05 01:38 6.93919 71.56439 35889 ft 506 kts 312°
2026-05-05 01:38 6.98673 71.51212 35881 ft 506 kts 312°
2026-05-05 01:39 7.03430 71.45982 35884 ft 506 kts 312°
2026-05-05 01:39 7.08146 71.40794 35880 ft 506 kts 312°
2026-05-05 01:40 7.12899 71.35563 35879 ft 506 kts 312°
2026-05-05 01:40 7.17657 71.30326 35882 ft 506 kts 312°
2026-05-05 01:41 7.22412 71.25089 35873 ft 506 kts 312°
2026-05-05 01:41 7.27175 71.19845 35871 ft 507 kts 312°
2026-05-05 01:42 7.31908 71.14630 35876 ft 508 kts 312°
2026-05-05 01:42 7.36663 71.09390 35882 ft 508 kts 312°
2026-05-05 01:43 7.41437 71.04128 35885 ft 509 kts 312°
2026-05-05 01:43 7.46209 70.98865 35896 ft 508 kts 312°
2026-05-05 01:44 7.51163 70.93785 35883 ft 509 kts 319°
2026-05-05 01:44 7.56686 70.89409 35881 ft 508 kts 322°
2026-05-05 01:45 7.62261 70.85007 35881 ft 508 kts 322°
2026-05-05 01:45 7.67831 70.80608 35874 ft 508 kts 322°
2026-05-05 01:46 7.73391 70.76218 35877 ft 508 kts 322°
2026-05-05 01:46 7.78961 70.71819 35875 ft 508 kts 322°
2026-05-05 01:47 7.84490 70.67451 35873 ft 508 kts 322°
2026-05-05 01:47 7.90052 70.63056 35873 ft 508 kts 322°
2026-05-05 01:48 7.95620 70.58653 35869 ft 509 kts 322°
2026-05-05 01:48 8.01203 70.54238 35872 ft 509 kts 322°
2026-05-05 01:49 8.06743 70.49855 35870 ft 510 kts 322°
2026-05-05 01:49 8.12310 70.45450 35877 ft 510 kts 322°
2026-05-05 01:50 8.17896 70.41028 35891 ft 509 kts 322°
2026-05-05 01:50 8.23475 70.36609 35883 ft 509 kts 322°
2026-05-05 01:51 8.29063 70.32181 35886 ft 509 kts 322°
2026-05-05 01:51 8.34598 70.27795 35879 ft 509 kts 322°
2026-05-05 01:52 8.40164 70.23381 35887 ft 508 kts 322°
2026-05-05 01:52 8.45727 70.18968 35895 ft 508 kts 322°
2026-05-05 01:53 8.51288 70.14556 35889 ft 508 kts 322°
2026-05-05 01:53 8.56849 70.10143 35879 ft 508 kts 322°
2026-05-05 01:54 8.62412 70.05725 35868 ft 508 kts 322°
2026-05-05 01:54 8.67973 70.01307 35882 ft 509 kts 322°
2026-05-05 01:55 8.73540 69.96884 35879 ft 509 kts 322°
2026-05-05 01:55 8.79071 69.92486 35892 ft 509 kts 322°
2026-05-05 01:56 8.84632 69.88064 35881 ft 509 kts 322°
2026-05-05 01:56 8.90199 69.83634 35887 ft 509 kts 322°
2026-05-05 01:57 8.95757 69.79210 35882 ft 508 kts 322°
2026-05-05 01:57 9.01315 69.74785 35889 ft 508 kts 322°
2026-05-05 01:58 9.06867 69.70363 35879 ft 508 kts 322°
2026-05-05 01:58 9.12416 69.65940 35887 ft 507 kts 322°
2026-05-05 01:59 9.17928 69.61546 35878 ft 507 kts 322°
2026-05-05 01:59 9.23471 69.57125 35873 ft 507 kts 322°
2026-05-05 02:00 9.29010 69.52706 35893 ft 506 kts 322°
2026-05-05 02:00 9.34535 69.48296 35897 ft 505 kts 322°
2026-05-05 02:01 9.40049 69.43893 35898 ft 504 kts 322°
2026-05-05 02:01 9.45550 69.39499 35897 ft 503 kts 322°
2026-05-05 02:02 9.51038 69.35113 35889 ft 503 kts 322°
2026-05-05 02:02 9.56525 69.30725 35883 ft 502 kts 322°
2026-05-05 02:03 9.61984 69.26359 35891 ft 501 kts 322°
2026-05-05 02:03 9.67447 69.21987 35884 ft 501 kts 322°
2026-05-05 02:04 9.72910 69.17614 35887 ft 500 kts 322°
2026-05-05 02:04 9.77451 69.13975 35885 ft 500 kts 322°
2026-05-05 02:05 9.82902 69.09602 35879 ft 499 kts 322°
2026-05-05 02:05 9.88354 69.05227 35879 ft 499 kts 322°
2026-05-05 02:06 9.93815 69.00844 35869 ft 500 kts 322°
2026-05-05 02:06 9.99250 68.96479 35881 ft 502 kts 322°
2026-05-05 02:07 10.04726 68.92081 35896 ft 502 kts 322°
2026-05-05 02:07 10.10206 68.87676 35896 ft 503 kts 322°
2026-05-05 02:08 10.15708 68.83252 35901 ft 504 kts 322°
2026-05-05 02:08 10.21202 68.78832 35898 ft 504 kts 322°
2026-05-05 02:09 10.26703 68.74405 35905 ft 504 kts 322°
2026-05-05 02:09 10.32193 68.69985 35906 ft 504 kts 322°
2026-05-05 02:10 10.37678 68.65566 35904 ft 503 kts 322°
2026-05-05 02:10 10.43129 68.61174 35901 ft 503 kts 322°
2026-05-05 02:11 10.48591 68.56769 35898 ft 502 kts 322°
2026-05-05 02:11 10.54076 68.52345 35895 ft 502 kts 322°
2026-05-05 02:12 10.62278 68.45725 35895 ft 502 kts 322°
2026-05-05 02:13 10.67757 68.41300 35896 ft 502 kts 322°
2026-05-05 02:13 10.73191 68.36910 35896 ft 502 kts 322°
2026-05-05 02:14 10.78657 68.32491 35895 ft 502 kts 322°
2026-05-05 02:14 10.84116 68.28076 35896 ft 502 kts 322°
2026-05-05 02:15 10.89581 68.23654 35900 ft 502 kts 322°
2026-05-05 02:15 10.95055 68.19222 35903 ft 502 kts 322°
2026-05-05 02:16 11.00505 68.14808 35897 ft 503 kts 322°
2026-05-05 02:16 11.05945 68.10400 35902 ft 503 kts 322°
2026-05-05 02:17 11.11419 68.05962 35902 ft 503 kts 322°
2026-05-05 02:17 11.16895 68.01520 35896 ft 503 kts 322°
2026-05-05 02:18 11.22360 67.97086 35906 ft 502 kts 322°
2026-05-05 02:18 11.27826 67.92647 35902 ft 502 kts 322°
2026-05-05 02:19 11.33297 67.88203 35900 ft 502 kts 322°
2026-05-05 02:19 11.38758 67.83764 35898 ft 502 kts 322°
2026-05-05 02:20 11.44224 67.79320 35900 ft 502 kts 322°
2026-05-05 02:20 11.49679 67.74882 35900 ft 502 kts 322°
2026-05-05 02:21 11.55140 67.70437 35899 ft 502 kts 322°
2026-05-05 02:21 11.60605 67.65986 35898 ft 502 kts 322°
2026-05-05 02:22 11.66028 67.61566 35898 ft 502 kts 322°
2026-05-05 02:22 11.71490 67.57114 35903 ft 502 kts 322°
2026-05-05 02:23 11.76958 67.52654 35897 ft 503 kts 322°
2026-05-05 02:23 11.82420 67.48197 35901 ft 503 kts 322°
2026-05-05 02:24 11.87883 67.43735 35901 ft 503 kts 322°
2026-05-05 02:24 11.93358 67.39263 35905 ft 503 kts 322°
2026-05-05 02:25 11.98812 67.34806 35902 ft 503 kts 322°
2026-05-05 02:25 12.04282 67.30331 35899 ft 504 kts 322°
2026-05-05 02:26 12.09760 67.25852 35908 ft 504 kts 322°
2026-05-05 02:26 12.15191 67.21407 35907 ft 504 kts 322°
2026-05-05 02:27 12.20659 67.16930 35904 ft 504 kts 322°
2026-05-05 02:27 12.26134 67.12444 35902 ft 504 kts 322°
2026-05-05 02:28 12.31602 67.07961 35897 ft 504 kts 322°
2026-05-05 02:28 12.37070 67.03476 35895 ft 504 kts 322°
2026-05-05 02:29 12.42542 66.98986 35905 ft 504 kts 322°
2026-05-05 02:29 12.47982 66.94519 35901 ft 504 kts 321°
2026-05-05 02:30 12.53456 66.90021 35897 ft 504 kts 322°
2026-05-05 02:30 12.58928 66.85524 35899 ft 505 kts 322°
2026-05-05 02:31 12.64405 66.81019 35906 ft 505 kts 321°
2026-05-05 02:31 12.69880 66.76512 35896 ft 505 kts 322°
2026-05-05 02:32 12.75352 66.72006 35900 ft 505 kts 321°
2026-05-05 02:32 12.80821 66.67500 35891 ft 506 kts 322°
2026-05-05 02:33 12.86275 66.63004 35906 ft 506 kts 321°
2026-05-05 02:33 12.91757 66.58483 35910 ft 506 kts 321°
2026-05-05 02:34 12.97244 66.53954 35896 ft 506 kts 321°
2026-05-05 02:34 13.02724 66.49429 35906 ft 506 kts 321°
2026-05-05 02:35 13.08200 66.44903 35907 ft 505 kts 321°
2026-05-05 02:35 13.13686 66.40368 35887 ft 506 kts 321°
2026-05-05 02:36 13.19161 66.35838 35886 ft 506 kts 321°
2026-05-05 02:36 13.24644 66.31299 35892 ft 507 kts 321°
2026-05-05 02:37 13.30102 66.26778 35896 ft 507 kts 321°
2026-05-05 02:37 13.35590 66.22231 35895 ft 507 kts 321°
2026-05-05 02:38 13.41083 66.17675 35890 ft 508 kts 321°
2026-05-05 02:38 13.46572 66.13121 35906 ft 507 kts 321°
2026-05-05 02:39 13.52062 66.08562 35888 ft 508 kts 321°
2026-05-05 02:39 13.57556 66.03998 35888 ft 508 kts 321°
2026-05-05 02:40 13.63041 65.99439 35896 ft 508 kts 321°
2026-05-05 02:40 13.68540 65.94864 35893 ft 509 kts 321°
2026-05-05 02:41 13.73997 65.90322 35890 ft 509 kts 321°
2026-05-05 02:41 13.79495 65.85743 35908 ft 508 kts 321°
2026-05-05 02:42 13.84991 65.81163 35902 ft 509 kts 321°
2026-05-05 02:42 13.90499 65.76571 35906 ft 509 kts 321°
2026-05-05 02:43 13.95994 65.71985 35905 ft 508 kts 321°
2026-05-05 02:43 14.01478 65.67406 35890 ft 509 kts 321°
2026-05-05 02:44 14.06974 65.62815 35895 ft 508 kts 321°
2026-05-05 02:44 14.12469 65.58221 35883 ft 509 kts 321°
2026-05-05 02:45 14.17970 65.53619 35890 ft 509 kts 321°
2026-05-05 02:45 14.23436 65.49043 35895 ft 509 kts 321°
2026-05-05 02:46 14.28919 65.44451 35888 ft 509 kts 321°
2026-05-05 02:46 14.34424 65.39837 35907 ft 509 kts 321°
2026-05-05 02:47 14.39926 65.35222 35887 ft 509 kts 321°
2026-05-05 02:47 14.45415 65.30616 35905 ft 509 kts 321°
2026-05-05 02:48 14.50920 65.25992 35887 ft 509 kts 321°
2026-05-05 02:48 14.56383 65.21403 35897 ft 509 kts 321°
2026-05-05 02:49 14.61879 65.16781 35896 ft 509 kts 321°
2026-05-05 02:49 14.67372 65.12152 35889 ft 510 kts 321°
2026-05-05 02:50 14.72875 65.07515 35911 ft 510 kts 321°
2026-05-05 02:50 14.78367 65.02886 35905 ft 509 kts 321°
2026-05-05 02:51 14.83827 64.98279 35895 ft 510 kts 321°
2026-05-05 02:51 14.89319 64.93643 35912 ft 508 kts 320°
2026-05-05 02:52 14.94801 64.89012 35896 ft 508 kts 320°
2026-05-05 02:52 15.00264 64.84393 35880 ft 508 kts 320°
2026-05-05 02:53 15.04808 64.80549 35909 ft 507 kts 320°
2026-05-05 02:53 15.10271 64.75925 35879 ft 507 kts 320°
2026-05-05 02:54 15.15730 64.71301 35885 ft 507 kts 320°
2026-05-05 02:54 15.21197 64.66667 35889 ft 507 kts 320°
2026-05-05 02:55 15.26599 64.62084 35894 ft 506 kts 320°
2026-05-05 02:55 15.32035 64.57470 35886 ft 506 kts 320°
2026-05-05 02:56 15.37482 64.52843 35889 ft 506 kts 320°
2026-05-05 02:56 15.42916 64.48224 35898 ft 505 kts 320°
2026-05-05 02:57 15.48319 64.43629 35905 ft 504 kts 320°
2026-05-05 02:57 15.53744 64.39013 35891 ft 504 kts 320°
2026-05-05 02:58 15.59160 64.34398 35900 ft 503 kts 320°
2026-05-05 02:58 15.64577 64.29781 35888 ft 503 kts 320°
2026-05-05 02:59 15.69985 64.25168 35886 ft 503 kts 320°
2026-05-05 02:59 15.75357 64.20582 35889 ft 503 kts 320°
2026-05-05 03:00 15.80799 64.15934 35901 ft 502 kts 320°
2026-05-05 03:00 15.86199 64.11319 35898 ft 502 kts 320°
2026-05-05 03:01 15.91548 64.06742 35900 ft 502 kts 320°
2026-05-05 03:01 15.96941 64.02126 35889 ft 502 kts 320°
2026-05-05 03:02 16.02323 63.97516 35888 ft 502 kts 320°
2026-05-05 03:02 16.07712 63.92897 35904 ft 501 kts 319°
2026-05-05 03:03 16.13084 63.88287 35898 ft 500 kts 320°
2026-05-05 03:03 16.18461 63.83671 35895 ft 500 kts 319°
2026-05-05 03:04 16.23824 63.79064 35893 ft 500 kts 319°
2026-05-05 03:04 16.29185 63.74455 35894 ft 499 kts 319°
2026-05-05 03:05 16.34532 63.69854 35898 ft 499 kts 320°
2026-05-05 03:05 16.39854 63.65271 35890 ft 499 kts 320°
2026-05-05 03:06 16.45194 63.60671 35895 ft 498 kts 320°
2026-05-05 03:06 16.50536 63.56064 35880 ft 498 kts 320°
2026-05-05 03:07 16.55872 63.51458 35880 ft 498 kts 320°
2026-05-05 03:07 16.61179 63.46877 35885 ft 498 kts 319°
2026-05-05 03:08 16.66508 63.42272 35895 ft 497 kts 319°
2026-05-05 03:08 16.71828 63.37671 35900 ft 496 kts 319°
2026-05-05 03:09 16.77145 63.33068 35883 ft 497 kts 319°
2026-05-05 03:09 16.82470 63.28457 35900 ft 496 kts 319°
2026-05-05 03:10 16.87747 63.23881 35884 ft 496 kts 319°
2026-05-05 03:10 16.93048 63.19284 35891 ft 495 kts 319°
2026-05-05 03:11 16.98349 63.14682 35867 ft 496 kts 319°
2026-05-05 03:11 17.03634 63.10057 35877 ft 495 kts 317°
2026-05-05 03:12 17.08821 63.05317 35881 ft 496 kts 317°
2026-05-05 03:12 17.14026 63.00561 35885 ft 497 kts 318°
2026-05-05 03:13 17.19248 62.95812 35895 ft 497 kts 318°
2026-05-05 03:13 17.24465 62.91067 35891 ft 497 kts 318°
2026-05-05 03:14 17.29684 62.86317 35892 ft 497 kts 318°
2026-05-05 03:14 17.34876 62.81588 35905 ft 496 kts 317°
2026-05-05 03:15 17.40073 62.76849 35898 ft 495 kts 317°
2026-05-05 03:15 17.45280 62.72097 35905 ft 495 kts 317°
2026-05-05 03:16 17.50467 62.67360 35899 ft 494 kts 317°
2026-05-05 03:16 17.55641 62.62632 35899 ft 494 kts 317°
2026-05-05 03:17 17.60814 62.57901 35895 ft 493 kts 317°
2026-05-05 03:17 17.65934 62.53213 35889 ft 493 kts 317°
2026-05-05 03:18 17.71104 62.48476 35881 ft 492 kts 317°
2026-05-05 03:18 17.76262 62.43748 35876 ft 492 kts 317°
2026-05-05 03:19 17.83984 62.36660 35868 ft 492 kts 317°
2026-05-05 03:19 17.89140 62.31925 35882 ft 492 kts 317°
2026-05-05 03:20 17.94286 62.27194 35876 ft 492 kts 317°
2026-05-05 03:20 17.99428 62.22461 35866 ft 492 kts 317°
2026-05-05 03:21 18.04591 62.17708 35872 ft 492 kts 317°
2026-05-05 03:21 18.09745 62.12957 35872 ft 493 kts 317°
2026-05-05 03:22 18.14867 62.08233 35884 ft 493 kts 317°
2026-05-05 03:22 18.20030 62.03466 35875 ft 494 kts 317°
2026-05-05 03:23 18.25190 61.98701 35895 ft 494 kts 317°
2026-05-05 03:23 18.30354 61.93926 35884 ft 494 kts 317°
2026-05-05 03:24 18.35505 61.89158 35866 ft 494 kts 317°
2026-05-05 03:24 18.40664 61.84380 35866 ft 494 kts 317°
2026-05-05 03:25 18.45791 61.79628 35876 ft 494 kts 317°
2026-05-05 03:25 18.50946 61.74846 35869 ft 494 kts 317°
2026-05-05 03:26 18.56098 61.70063 35876 ft 493 kts 317°
2026-05-05 03:26 18.61247 61.65277 35875 ft 493 kts 317°
2026-05-05 03:27 18.66398 61.60487 35876 ft 493 kts 317°
2026-05-05 03:27 18.71540 61.55700 35867 ft 493 kts 317°
2026-05-05 03:28 18.76685 61.50906 35859 ft 493 kts 317°
2026-05-05 03:28 18.81804 61.46134 35867 ft 493 kts 317°
2026-05-05 03:29 18.86922 61.41358 35872 ft 492 kts 317°
2026-05-05 03:29 18.92086 61.36535 35868 ft 492 kts 317°
2026-05-05 03:30 18.97178 61.31775 35857 ft 492 kts 317°
2026-05-05 03:30 19.02309 61.26975 35857 ft 492 kts 317°
2026-05-05 03:31 19.07436 61.22174 35862 ft 492 kts 317°
2026-05-05 03:31 19.12553 61.17378 35855 ft 492 kts 317°
2026-05-05 03:32 19.17673 61.12576 35854 ft 492 kts 317°
2026-05-05 03:32 19.22793 61.07769 35854 ft 492 kts 317°
2026-05-05 03:33 19.27907 61.02963 35852 ft 491 kts 317°
2026-05-05 03:33 19.32988 60.98185 35850 ft 491 kts 316°
2026-05-05 03:34 19.38097 60.93376 35849 ft 491 kts 316°
2026-05-05 03:34 19.43213 60.88557 35848 ft 491 kts 316°
2026-05-05 03:35 19.48313 60.83748 35844 ft 491 kts 316°
2026-05-05 03:35 19.53426 60.78923 35843 ft 491 kts 316°
2026-05-05 03:36 19.58518 60.74113 35842 ft 491 kts 316°
2026-05-05 03:36 19.63627 60.69283 35837 ft 491 kts 316°
2026-05-05 03:37 19.68692 60.64490 35839 ft 491 kts 316°
2026-05-05 03:37 19.73786 60.59665 35833 ft 491 kts 316°
2026-05-05 03:38 19.78887 60.54830 35832 ft 491 kts 316°
2026-05-05 03:38 19.83982 60.49996 35834 ft 491 kts 316°
2026-05-05 03:39 19.89084 60.45151 35835 ft 491 kts 316°
2026-05-05 03:39 19.94184 60.40304 35831 ft 491 kts 316°
2026-05-05 03:40 19.99249 60.35487 35829 ft 491 kts 316°
2026-05-05 03:40 20.04402 60.30702 35829 ft 492 kts 321°
2026-05-05 03:41 20.10162 60.26743 35824 ft 494 kts 328°
2026-05-05 03:41 20.15073 60.23636 35826 ft 494 kts 327°
2026-05-05 03:42 20.20967 60.19888 35820 ft 494 kts 327°
2026-05-05 03:42 20.26864 60.16141 35821 ft 494 kts 327°
2026-05-05 03:43 20.32769 60.12388 35829 ft 494 kts 327°
2026-05-05 03:43 20.38675 60.08632 35829 ft 494 kts 327°
2026-05-05 03:44 20.44531 60.04904 35824 ft 494 kts 327°
2026-05-05 03:44 20.50424 60.01149 35821 ft 494 kts 327°
2026-05-05 03:45 20.56325 59.97385 35824 ft 493 kts 327°
2026-05-05 03:45 20.62215 59.93626 35828 ft 493 kts 327°
2026-05-05 03:46 20.68107 59.89861 35820 ft 493 kts 327°
2026-05-05 03:46 20.73992 59.86098 35819 ft 493 kts 327°
2026-05-05 03:47 20.79872 59.82333 35816 ft 493 kts 327°
2026-05-05 03:47 20.85756 59.78564 35820 ft 493 kts 327°
2026-05-05 03:48 20.91600 59.74816 35814 ft 492 kts 327°
2026-05-05 03:48 20.97469 59.71049 35816 ft 492 kts 327°
2026-05-05 03:49 21.03346 59.67273 35811 ft 492 kts 327°
2026-05-05 03:49 21.09220 59.63492 35818 ft 492 kts 327°
2026-05-05 03:50 21.15085 59.59714 35814 ft 492 kts 327°
2026-05-05 03:50 21.20954 59.55930 35810 ft 492 kts 327°
2026-05-05 03:51 21.26810 59.52151 35810 ft 491 kts 327°
2026-05-05 03:51 21.32616 59.48399 35808 ft 491 kts 327°
2026-05-05 03:52 21.38476 59.44609 35815 ft 491 kts 327°
2026-05-05 03:52 21.44333 59.40817 35814 ft 491 kts 327°
2026-05-05 03:53 21.50182 59.37026 35813 ft 491 kts 327°
2026-05-05 03:53 21.56029 59.33234 35814 ft 491 kts 327°
2026-05-05 03:54 21.61877 59.29438 35822 ft 490 kts 327°
2026-05-05 03:54 21.67676 59.25671 35825 ft 490 kts 327°
2026-05-05 03:55 21.73523 59.21870 35823 ft 490 kts 327°
2026-05-05 03:55 21.79350 59.18079 35822 ft 490 kts 327°
2026-05-05 03:56 21.85184 59.14280 35836 ft 489 kts 327°
2026-05-05 03:56 21.90967 59.10509 35833 ft 489 kts 327°
2026-05-05 03:57 21.96778 59.06717 35831 ft 488 kts 327°
2026-05-05 03:57 22.02589 59.02921 35830 ft 488 kts 327°
2026-05-05 03:58 22.08388 58.99130 35824 ft 488 kts 327°
2026-05-05 03:58 22.14190 58.95332 35829 ft 487 kts 327°
2026-05-05 03:59 22.19989 58.91534 35829 ft 487 kts 327°
2026-05-05 03:59 22.25779 58.87737 35828 ft 487 kts 327°
2026-05-05 04:00 22.31574 58.83933 35830 ft 487 kts 327°
2026-05-05 04:00 22.37366 58.80129 35838 ft 487 kts 326°
2026-05-05 04:01 22.43151 58.76324 35836 ft 487 kts 326°
2026-05-05 04:01 22.48936 58.72515 35837 ft 487 kts 326°
2026-05-05 04:02 22.54684 58.68728 35832 ft 486 kts 326°
2026-05-05 04:02 22.60469 58.64913 35840 ft 486 kts 326°
2026-05-05 04:03 22.66241 58.61102 35839 ft 486 kts 326°
2026-05-05 04:03 22.72019 58.57283 35835 ft 485 kts 326°
2026-05-05 04:04 22.77738 58.53502 35835 ft 485 kts 326°
2026-05-05 04:04 22.83501 58.49687 35843 ft 485 kts 326°
2026-05-05 04:05 22.89253 58.45875 35833 ft 485 kts 326°
2026-05-05 04:05 22.95011 58.42056 35831 ft 484 kts 326°
2026-05-05 04:06 23.00759 58.38239 35832 ft 484 kts 326°
2026-05-05 04:06 23.06510 58.34416 35830 ft 484 kts 325°
2026-05-05 04:07 23.12261 58.30587 35823 ft 484 kts 325°
2026-05-05 04:07 23.17959 58.26788 35820 ft 484 kts 325°
2026-05-05 04:08 23.23682 58.22970 35814 ft 483 kts 325°
2026-05-05 04:08 23.29421 58.19137 35798 ft 483 kts 325°
2026-05-05 04:09 23.35136 58.15290 35797 ft 482 kts 323°
2026-05-05 04:09 23.40347 58.10767 35798 ft 478 kts 314°
2026-05-05 04:10 23.44765 58.05418 35806 ft 474 kts 306°
2026-05-05 04:10 23.48892 57.99821 35808 ft 473 kts 306°
2026-05-05 04:11 23.53024 57.94240 35826 ft 473 kts 306°
2026-05-05 04:11 23.57144 57.88650 35809 ft 473 kts 306°
2026-05-05 04:12 23.61257 57.83057 35808 ft 472 kts 306°
2026-05-05 04:12 23.65333 57.77508 35811 ft 472 kts 306°
2026-05-05 04:13 23.69435 57.71918 35810 ft 471 kts 306°
2026-05-05 04:13 23.73530 57.66332 35841 ft 471 kts 306°
2026-05-05 04:14 23.77619 57.60747 35831 ft 470 kts 306°
2026-05-05 04:14 23.81692 57.55177 35814 ft 470 kts 306°
2026-05-05 04:15 23.85744 57.49630 35808 ft 469 kts 306°
2026-05-05 04:15 23.89808 57.44061 35803 ft 469 kts 306°
2026-05-05 04:16 23.93875 57.38481 35814 ft 468 kts 306°
2026-05-05 04:16 23.97911 57.32939 35206 ft 464 kts 306°
2026-05-05 04:17 23.99923 57.30173 34442 ft 465 kts 306°
2026-05-05 04:17 24.01940 57.27396 33568 ft 467 kts 306°
2026-05-05 04:17 24.03968 57.24604 32529 ft 470 kts 306°
2026-05-05 04:17 24.06006 57.21797 31466 ft 473 kts 306°
2026-05-05 04:18 24.08057 57.18973 30625 ft 472 kts 306°
2026-05-05 04:18 24.10090 57.16172 29946 ft 468 kts 306°
2026-05-05 04:18 24.12080 57.13430 29163 ft 463 kts 306°
2026-05-05 04:18 24.14067 57.10688 28825 ft 456 kts 306°
2026-05-05 04:19 24.18047 57.05188 28804 ft 463 kts 306°
2026-05-05 04:19 24.22022 56.99692 28329 ft 456 kts 306°
2026-05-05 04:20 24.23987 56.96973 27638 ft 453 kts 306°
2026-05-05 04:20 24.25898 56.94327 26941 ft 449 kts 306°
2026-05-05 04:20 24.27828 56.91653 26217 ft 446 kts 306°
2026-05-05 04:20 24.29747 56.88993 25510 ft 442 kts 306°
2026-05-05 04:21 24.31650 56.86352 24817 ft 439 kts 307°
2026-05-05 04:21 24.33534 56.83738 24139 ft 436 kts 307°
2026-05-05 04:21 24.35405 56.81139 23441 ft 434 kts 307°
2026-05-05 04:21 24.37276 56.78541 22700 ft 430 kts 307°
2026-05-05 04:22 24.39116 56.75983 22026 ft 424 kts 307°
2026-05-05 04:22 24.40934 56.73456 21333 ft 419 kts 307°
2026-05-05 04:22 24.42733 56.70952 20656 ft 415 kts 307°
2026-05-05 04:22 24.44508 56.68481 19992 ft 411 kts 307°
2026-05-05 04:23 24.46268 56.66029 19341 ft 407 kts 307°
2026-05-05 04:23 24.48006 56.63608 18668 ft 404 kts 307°
2026-05-05 04:23 24.49729 56.61205 18161 ft 397 kts 307°
2026-05-05 04:23 24.51420 56.58847 17622 ft 390 kts 307°
2026-05-05 04:24 24.53083 56.56527 17085 ft 384 kts 307°
2026-05-05 04:24 24.54722 56.54238 16568 ft 377 kts 307°
2026-05-05 04:24 24.56330 56.51991 16046 ft 372 kts 307°
2026-05-05 04:25 24.59483 56.47583 15045 ft 362 kts 307°
2026-05-05 04:25 24.61011 56.45445 14580 ft 358 kts 308°
2026-05-05 04:25 24.62538 56.43307 14068 ft 354 kts 308°
2026-05-05 04:25 24.64049 56.41191 13598 ft 350 kts 308°
2026-05-05 04:26 24.65543 56.39099 12997 ft 348 kts 308°
2026-05-05 04:26 24.67058 56.36975 12119 ft 355 kts 308°
2026-05-05 04:26 24.68578 56.34845 11605 ft 351 kts 308°
2026-05-05 04:26 24.70058 56.32772 11346 ft 345 kts 309°
2026-05-05 04:27 24.71763 56.30911 11108 ft 345 kts 323°
2026-05-05 04:27 24.73847 56.29639 10878 ft 343 kts 339°
2026-05-05 04:27 24.76138 56.28901 10509 ft 343 kts 345°
2026-05-05 04:27 24.78408 56.28239 10366 ft 329 kts 345°
2026-05-05 04:28 24.80543 56.27608 10251 ft 315 kts 345°
2026-05-05 04:28 24.82642 56.26982 10132 ft 302 kts 345°
2026-05-05 04:28 24.84634 56.26385 9946 ft 293 kts 345°
2026-05-05 04:28 24.86536 56.25747 9651 ft 288 kts 336°
2026-05-05 04:29 24.88147 56.24492 9351 ft 285 kts 313°
2026-05-05 04:29 24.89223 56.22689 9075 ft 280 kts 300°
2026-05-05 04:29 24.90153 56.20819 8775 ft 276 kts 300°
2026-05-05 04:29 24.91093 56.18985 8515 ft 273 kts 301°
2026-05-05 04:30 24.92025 56.17183 8234 ft 270 kts 301°
2026-05-05 04:30 24.92952 56.15389 7958 ft 270 kts 301°
2026-05-05 04:30 24.93877 56.13597 7665 ft 269 kts 301°
2026-05-05 04:30 24.94802 56.11799 7386 ft 270 kts 301°
2026-05-05 04:31 24.95711 56.10031 7304 ft 259 kts 301°
2026-05-05 04:31 24.96585 56.08327 7189 ft 252 kts 301°
2026-05-05 04:31 24.97274 56.06577 7082 ft 247 kts 288°
2026-05-05 04:31 24.97593 56.04698 6832 ft 252 kts 276°
2026-05-05 04:32 24.97690 56.03418 6672 ft 253 kts 276°
2026-05-05 04:32 24.97862 56.01491 6428 ft 252 kts 277°
2026-05-05 04:32 24.98048 55.99573 6187 ft 252 kts 277°
2026-05-05 04:32 24.98238 55.97657 5947 ft 251 kts 277°
2026-05-05 04:33 24.98425 55.95753 5705 ft 250 kts 277°
2026-05-05 04:33 24.98611 55.93850 5461 ft 248 kts 277°
2026-05-05 04:33 24.98794 55.91961 5220 ft 247 kts 277°
2026-05-05 04:33 24.98976 55.90084 4987 ft 246 kts 277°
2026-05-05 04:34 24.99156 55.88215 4744 ft 245 kts 277°
2026-05-05 04:34 24.99336 55.86343 4496 ft 245 kts 277°
2026-05-05 04:34 24.99517 55.84478 4249 ft 244 kts 277°
2026-05-05 04:34 24.99754 55.82660 4017 ft 242 kts 287°
2026-05-05 04:35 25.00428 55.80981 3774 ft 238 kts 304°
2026-05-05 04:35 25.01341 55.79440 3549 ft 237 kts 304°
2026-05-05 04:35 25.02217 55.77896 3306 ft 237 kts 304°
2026-05-05 04:35 25.03093 55.76391 3052 ft 237 kts 305°
2026-05-05 04:36 25.03987 55.74870 2800 ft 236 kts 304°
2026-05-05 04:36 25.04848 55.73327 2560 ft 235 kts 303°
2026-05-05 04:36 25.05701 55.71790 2314 ft 234 kts 303°
2026-05-05 04:36 25.06552 55.70257 2070 ft 236 kts 303°
2026-05-05 04:37 25.07427 55.68680 2017 ft 243 kts 303°
2026-05-05 04:37 25.08285 55.67129 2020 ft 231 kts 303°
2026-05-05 04:37 25.09103 55.65653 2026 ft 222 kts 303°
2026-05-05 04:37 25.09898 55.64223 2023 ft 217 kts 303°
2026-05-05 04:38 25.10679 55.62813 2025 ft 215 kts 303°
2026-05-05 04:38 25.11447 55.61427 2015 ft 209 kts 303°
2026-05-05 04:38 25.12195 55.60079 2021 ft 207 kts 303°
2026-05-05 04:38 25.12949 55.58719 2023 ft 208 kts 303°
2026-05-05 04:39 25.13706 55.57353 2025 ft 208 kts 303°
2026-05-05 04:39 25.14459 55.55994 2026 ft 208 kts 302°
2026-05-05 04:39 25.15214 55.54631 2024 ft 209 kts 303°
2026-05-05 04:39 25.15974 55.53263 2027 ft 207 kts 303°
2026-05-05 04:40 25.16706 55.51938 2025 ft 198 kts 302°
2026-05-05 04:40 25.17403 55.50677 2037 ft 187 kts 303°
2026-05-05 04:40 25.18070 55.49476 2020 ft 181 kts 303°
2026-05-05 04:40 25.18723 55.48293 1797 ft 180 kts 303°
2026-05-05 04:41 25.19346 55.47169 1591 ft 162 kts 302°
2026-05-05 04:41 25.19913 55.46143 1384 ft 153 kts 303°
2026-05-05 04:41 25.20466 55.45150 1189 ft 150 kts 302°
2026-05-05 04:41 25.20994 55.44187 1002 ft 148 kts 302°
2026-05-05 04:42 25.21538 55.43219 823 ft 145 kts 302°
2026-05-05 04:42 25.22056 55.42287 662 ft 144 kts 300°
2026-05-05 04:42 25.22569 55.41349 459 ft 142 kts 300°
2026-05-05 04:42 25.23076 55.40417 261 ft 141 kts 300°
2026-05-05 04:43 25.23589 55.39489 65 ft 141 kts 300°
2026-05-05 04:43 25.24056 55.38641 29 ft 109 kts 302°
2026-05-05 04:43 25.24392 55.38045 30 ft 76 kts 303°
2026-05-05 04:43 25.24601 55.37666 27 ft 46 kts 301°
2026-05-05 04:44 25.24746 55.37399 28 ft 35 kts 295°
2026-05-05 04:44 25.24786 55.37174 29 ft 25 kts 269°
2026-05-05 04:44 25.24789 55.37002 27 ft 12 kts 280°
2026-05-05 04:44 25.24806 55.36904 27 ft 13 kts 251°
2026-05-05 04:45 25.24733 55.36831 26 ft 16 kts 212°
2026-05-05 04:45 25.24630 55.36762 30 ft 19 kts 210°
2026-05-05 04:45 25.24516 55.36685 30 ft 20 kts 217°
2026-05-05 04:45 25.24448 55.36553 30 ft 20 kts 266°
2026-05-05 04:46 25.24499 55.36416 31 ft 17 kts 302°
2026-05-05 04:46 25.24567 55.36295 30 ft 20 kts 302°
2026-05-05 04:46 25.24643 55.36161 31 ft 22 kts 302°
2026-05-05 04:46 25.24725 55.36013 29 ft 23 kts 301°
2026-05-05 04:47 25.24806 55.35868 32 ft 19 kts 302°
2026-05-05 04:47 25.24885 55.35736 31 ft 21 kts 304°
2026-05-05 04:47 25.24943 55.35644 29 ft 11 kts 305°
2026-05-05 04:47 25.24987 55.35601 29 ft 0 kts 357°
2026-05-05 04:48 25.25001 55.35604 27 ft 4 kts 21°
2026-05-05 04:48 25.25017 55.35614 26 ft 4 kts 32°
2026-05-05 04:48 25.25034 55.35626 26 ft 3 kts 31°
2026-05-05 04:48 25.25043 55.35632 28 ft 2 kts 31°
2026-05-05 04:49 25.25047 55.35635 28 ft 0 kts 31°